M I D A S
Marine Information and Data Acquisition System
Tripno 1084 of the Zeeleeuw from 2006-05-16 11:20:07 to 2006-05-16 13:52:37
Back to CruiseResearch ActivitiesStationsMapUnderway DataData graphs

EquipmentUnitsComment
TimeDGPSUTC
LatitudeDGPSDM.mWGS84
LongitudeDGPSDM.mWGS84
TemperatureSBE03/SBE38deg celciusITS90
ConductivitySBE21S/mITS90
SalinitySBE21 Practical Salinity Units
ChlorophylAChelsea fluorimeterg/lCalibrated in Aceton
Missing or incorrect values are displayed as -999
Sea surface data collected by the RV Zeeleeuw from 2006-05-16 07:39:04 to 2006-05-16 14:03:54
                                                                                    Next 1000 lines
Time Latitude Longitude Temperature Conductivity Salinity ChlorophylA
2006-05-16 07:39:14 51°13.601 2°56.1 20.8584 0.006434 0.036074 31.141554
2006-05-16 07:39:18 51°13.601 2°56.1 20.8578 0.006434 0.036074 31.107845
2006-05-16 07:39:24 51°13.601 2°56.099 20.862 0.006434 0.036074 31.107845
2006-05-16 07:39:28 51°13.6 2°56.099 20.8751 0.006434 0.036074 31.074136
2006-05-16 07:39:34 51°13.6 2°56.1 20.9218 0.006434 0.036074 31.074136
2006-05-16 07:39:39 51°13.6 2°56.099 20.938 0.006434 0.036074 31.074136
2006-05-16 07:39:44 51°13.6 2°56.1 20.9497 0.006434 0.036074 31.074136
2006-05-16 07:39:48 51°13.6 2°56.099 20.9577 0.006434 0.036075 31.074136
2006-05-16 07:39:54 51°13.6 2°56.099 20.9527 0.006434 0.036075 31.074136
2006-05-16 07:39:59 51°13.6 2°56.1 20.9484 0.006434 0.036075 31.074136
2006-05-16 07:40:04 51°13.6 2°56.1 20.9434 0.006434 0.036075 31.074136
2006-05-16 07:40:09 51°13.6 2°56.1 20.9427 0.006434 0.036075 31.040426
2006-05-16 07:40:14 51°13.601 2°56.1 20.9398 0.006434 0.036075 31.040426
2006-05-16 07:40:18 51°13.601 2°56.1 20.9363 0.006434 0.036075 31.040426
2006-05-16 07:40:24 51°13.601 2°56.1 20.9362 0.006434 0.036075 31.040426
2006-05-16 07:40:29 51°13.601 2°56.1 20.937 0.006434 0.036075 31.040426
2006-05-16 07:40:34 51°13.6 2°56.1 20.9394 0.006434 0.036076 31.040426
2006-05-16 07:40:38 51°13.6 2°56.1 20.9401 0.006434 0.036076 31.006717
2006-05-16 07:40:44 51°13.6 2°56.1 20.9421 0.006434 0.036076 31.006717
2006-05-16 07:40:49 51°13.6 2°56.1 20.9429 0.006434 0.036076 31.006717
2006-05-16 07:40:54 51°13.6 2°56.099 20.943 0.006434 0.036076 31.006717
2006-05-16 07:40:58 51°13.6 2°56.099 20.9421 0.006434 0.036076 31.006717
2006-05-16 07:41:04 51°13.6 2°56.1 20.9458 0.006434 0.036076 30.973007
2006-05-16 07:41:08 51°13.6 2°56.099 20.9475 0.006434 0.036076 30.973007
2006-05-16 07:41:14 51°13.6 2°56.1 20.9515 0.006434 0.036077 30.973007
2006-05-16 07:41:19 51°13.599 2°56.099 20.9542 0.006434 0.036077 31.006717
2006-05-16 07:41:24 51°13.599 2°56.099 20.9543 0.006434 0.036077 31.006717
2006-05-16 07:41:28 51°13.599 2°56.099 20.8967 0.006434 0.036077 30.973007
2006-05-16 07:41:34 51°13.6 2°56.099 20.8177 0.006434 0.036077 30.973007
2006-05-16 07:41:39 51°13.6 2°56.098 20.7966 0.006434 0.036077 30.973007
2006-05-16 07:41:44 51°13.6 2°56.097 20.7953 0.006434 0.036077 30.973007
2006-05-16 07:41:48 51°13.601 2°56.096 20.763 0.006434 0.036077 30.973007
2006-05-16 07:41:54 51°13.601 2°56.093 20.8034 0.006434 0.036077 30.973007
2006-05-16 07:41:59 51°13.602 2°56.09 20.8381 0.006434 0.036077 30.939298
2006-05-16 07:42:04 51°13.602 2°56.087 20.8928 0.006434 0.036077 30.939298
2006-05-16 07:42:08 51°13.603 2°56.083 20.885 0.006434 0.036078 30.939298
2006-05-16 07:42:14 51°13.603 2°56.078 20.9066 0.006434 0.036077 30.939298
2006-05-16 07:42:19 51°13.604 2°56.073 20.9133 0.006434 0.036078 30.905589
2006-05-16 07:42:24 51°13.605 2°56.068 20.8858 0.006434 0.036078 30.905589
2006-05-16 07:42:29 51°13.607 2°56.062 20.8874 0.006434 0.036078 30.939298
2006-05-16 07:42:34 51°13.608 2°56.056 20.877 0.006434 0.036078 30.939298
2006-05-16 07:42:39 51°13.609 2°56.049 20.8772 0.006434 0.036078 30.905589
2006-05-16 07:42:44 51°13.611 2°56.043 20.8688 0.006434 0.036078 30.905589
2006-05-16 07:42:48 51°13.612 2°56.037 20.8676 0.006434 0.036078 30.905589
2006-05-16 07:42:54 51°13.614 2°56.028 20.8783 0.006434 0.036078 30.905589
2006-05-16 07:42:59 51°13.615 2°56.021 20.9065 0.006434 0.036078 30.905589
2006-05-16 07:43:04 51°13.616 2°56.013 20.9115 0.006434 0.036078 30.905589
2006-05-16 07:43:08 51°13.618 2°56.006 20.9102 0.006434 0.036078 30.871879
2006-05-16 07:43:14 51°13.62 2°55.995 20.903 0.006434 0.036078 30.871879
2006-05-16 07:43:19 51°13.621 2°55.986 20.9018 0.006434 0.036079 30.871879
2006-05-16 07:43:24 51°13.623 2°55.977 20.9319 0.006434 0.036079 30.871879
2006-05-16 07:43:29 51°13.626 2°55.968 20.9218 0.006434 0.036079 30.871879
2006-05-16 07:43:34 51°13.629 2°55.958 20.9224 0.006434 0.036079 30.871879
2006-05-16 07:43:39 51°13.631 2°55.949 20.9184 0.006434 0.036079 30.83817
2006-05-16 07:43:44 51°13.634 2°55.939 20.9174 0.006434 0.036079 30.83817
2006-05-16 07:43:48 51°13.637 2°55.931 20.9151 0.006434 0.03608 30.80446
2006-05-16 07:43:54 51°13.641 2°55.919 20.9458 0.006434 0.03608 30.80446
2006-05-16 07:43:59 51°13.644 2°55.909 20.9512 0.006434 0.03608 30.80446
2006-05-16 07:44:04 51°13.648 2°55.899 20.9605 0.006434 0.03608 30.83817
2006-05-16 07:44:08 51°13.651 2°55.891 20.9771 0.006434 0.03608 30.80446
2006-05-16 07:44:14 51°13.656 2°55.88 20.9738 0.006434 0.03608 30.83817
2006-05-16 07:44:19 51°13.66 2°55.87 20.9474 0.006434 0.03608 30.770751
2006-05-16 07:44:24 51°13.664 2°55.86 20.9458 0.006434 0.03608 30.770751
2006-05-16 07:44:28 51°13.668 2°55.852 20.942 0.006434 0.03608 30.80446
2006-05-16 07:44:34 51°13.672 2°55.841 20.9307 0.006434 0.03608 30.770751
2006-05-16 07:44:38 51°13.676 2°55.834 20.9438 0.006434 0.03608 30.770751
2006-05-16 07:44:44 51°13.68 2°55.824 20.9377 0.006434 0.03608 30.80446
2006-05-16 07:44:48 51°13.683 2°55.818 20.9345 0.006434 0.03608 30.80446
2006-05-16 07:44:52 51°13.686 2°55.811 20.9303 0.006434 0.03608 30.80446
2006-05-16 07:44:58 51°13.689 2°55.802 20.9307 0.006434 0.03608 30.737042
2006-05-16 07:45:03 51°13.692 2°55.795 20.9214 0.006434 0.036081 30.737042
2006-05-16 07:45:08 51°13.695 2°55.788 20.9122 0.006434 0.036081 30.770751
2006-05-16 07:45:13 51°13.698 2°55.781 20.9142 0.006434 0.036081 30.770751
2006-05-16 07:45:18 51°13.7 2°55.774 20.9177 0.006434 0.036081 30.737042
2006-05-16 07:45:23 51°13.703 2°55.768 20.9124 0.006434 0.036081 30.737042
2006-05-16 07:45:28 51°13.705 2°55.761 20.9088 0.006434 0.036081 30.737042
2006-05-16 07:45:34 51°13.707 2°55.755 20.9049 0.006434 0.036081 30.737042
2006-05-16 07:45:38 51°13.709 2°55.75 20.8995 0.006434 0.036081 30.737042
2006-05-16 07:45:43 51°13.71 2°55.746 20.9112 0.006434 0.036082 30.703332
2006-05-16 07:45:48 51°13.712 2°55.742 20.9167 0.006434 0.036082 30.737042
2006-05-16 07:45:54 51°13.713 2°55.739 20.9409 0.006434 0.036082 30.737042
2006-05-16 07:45:58 51°13.714 2°55.737 20.9464 0.006434 0.036082 30.703332
2006-05-16 07:46:03 51°13.714 2°55.737 20.9314 0.006434 0.036082 30.703332
2006-05-16 07:46:08 51°13.715 2°55.737 20.9292 0.006434 0.036082 30.703332
2006-05-16 07:46:14 51°13.716 2°55.737 20.927 0.006434 0.036082 30.669623
2006-05-16 07:46:19 51°13.716 2°55.739 20.927 0.006434 0.036082 30.669623
2006-05-16 07:46:23 51°13.717 2°55.739 20.8734 0.006434 0.036082 30.669623
2006-05-16 07:46:28 51°13.717 2°55.74 20.8658 0.006434 0.036082 30.669623
2006-05-16 07:46:34 51°13.718 2°55.74 20.7965 0.006434 0.036082 30.669623
2006-05-16 07:46:39 51°13.718 2°55.74 20.8644 0.006434 0.036083 30.635913
2006-05-16 07:46:44 51°13.718 2°55.739 20.7896 0.006434 0.036083 30.635913
2006-05-16 07:46:48 51°13.718 2°55.738 20.9086 0.006434 0.036083 30.635913
2006-05-16 07:46:54 51°13.718 2°55.735 20.9002 0.006434 0.036083 30.635913
2006-05-16 07:46:58 51°13.718 2°55.732 20.9525 0.006434 0.036083 30.635913
2006-05-16 07:47:04 51°13.717 2°55.728 20.9575 0.006434 0.036084 30.635913
2006-05-16 07:47:08 51°13.716 2°55.725 20.9597 0.006434 0.036084 30.635913
2006-05-16 07:47:14 51°13.716 2°55.721 20.9513 0.006434 0.036084 30.635913
2006-05-16 07:47:18 51°13.716 2°55.719 20.9539 0.006434 0.036084 30.635913
2006-05-16 07:47:24 51°13.715 2°55.715 20.9313 0.006434 0.036084 30.635913
2006-05-16 07:47:28 51°13.715 2°55.713 20.9357 0.006434 0.036084 30.635913
2006-05-16 07:47:34 51°13.714 2°55.711 20.9416 0.006434 0.036084 30.635913
2006-05-16 07:47:38 51°13.714 2°55.71 20.9667 0.006434 0.036084 30.635913
2006-05-16 07:47:44 51°13.715 2°55.709 20.969 0.006434 0.036084 30.602204
2006-05-16 07:47:48 51°13.715 2°55.709 20.9958 0.006434 0.036084 30.602204
2006-05-16 07:47:54 51°13.716 2°55.71 21.013 0.006434 0.036084 30.602204
2006-05-16 07:47:58 51°13.717 2°55.711 20.9929 0.006434 0.036084 30.568494
2006-05-16 07:48:04 51°13.719 2°55.712 20.9954 0.006434 0.036084 30.568494
2006-05-16 07:48:08 51°13.721 2°55.713 20.9871 0.006434 0.036084 30.568494
2006-05-16 07:48:13 51°13.723 2°55.714 20.9987 0.006434 0.036084 30.568494
2006-05-16 07:48:18 51°13.726 2°55.715 21.0159 0.006434 0.036085 30.568494
2006-05-16 07:48:24 51°13.729 2°55.716 21.0285 0.006434 0.036085 30.568494
2006-05-16 07:48:28 51°13.731 2°55.716 21.0355 0.006434 0.036085 30.534785
2006-05-16 07:48:33 51°13.734 2°55.715 21.0366 0.006434 0.036085 30.534785
2006-05-16 07:48:38 51°13.738 2°55.714 21.0132 0.006434 0.036085 30.534785
2006-05-16 07:48:44 51°13.742 2°55.712 21.0123 0.006434 0.036085 30.568494
2006-05-16 07:48:48 51°13.745 2°55.711 21.0001 0.006434 0.036085 30.501076
2006-05-16 07:48:53 51°13.749 2°55.709 20.9797 0.006434 0.036085 30.501076
2006-05-16 07:48:58 51°13.752 2°55.706 20.9617 0.006434 0.036086 30.534785
2006-05-16 07:49:03 51°13.756 2°55.703 20.9324 0.006434 0.036086 30.501076
2006-05-16 07:49:08 51°13.76 2°55.699 20.907 0.006434 0.036086 30.501076
2006-05-16 07:49:13 51°13.764 2°55.695 20.8989 0.006434 0.036086 30.501076
2006-05-16 07:49:18 51°13.769 2°55.692 20.8759 0.006434 0.036086 30.467366
2006-05-16 07:49:24 51°13.774 2°55.687 20.8757 0.006434 0.036086 30.467366
2006-05-16 07:49:28 51°13.778 2°55.685 20.8729 0.006434 0.036086 30.501076
2006-05-16 07:49:33 51°13.783 2°55.681 20.8806 0.006434 0.036086 30.501076
2006-05-16 07:49:38 51°13.788 2°55.676 20.8842 0.006434 0.036087 30.467366
2006-05-16 07:49:43 51°13.793 2°55.672 20.8939 0.006434 0.036087 30.467366
2006-05-16 07:49:48 51°13.798 2°55.668 20.9498 0.006434 0.036087 30.501076
2006-05-16 07:49:54 51°13.804 2°55.662 20.9128 0.006434 0.036087 30.501076
2006-05-16 07:49:58 51°13.809 2°55.658 20.9155 0.006434 0.036087 30.467366
2006-05-16 07:50:04 51°13.816 2°55.651 20.9166 0.006434 0.036087 30.467366
2006-05-16 07:50:08 51°13.82 2°55.646 20.9095 0.006434 0.036087 30.467366
2006-05-16 07:50:13 51°13.827 2°55.64 20.8887 0.006434 0.036087 30.467366
2006-05-16 07:50:18 51°13.833 2°55.633 20.8817 0.006434 0.036087 30.433657
2006-05-16 07:50:23 51°13.841 2°55.626 20.844 0.006434 0.036087 30.433657
2006-05-16 07:50:28 51°13.849 2°55.618 20.82 0.006434 0.036087 30.467366
2006-05-16 07:50:33 51°13.857 2°55.611 20.7648 0.006434 0.036087 30.399947
2006-05-16 07:50:38 51°13.866 2°55.604 20.7849 0.006434 0.036088 30.433657
2006-05-16 07:50:43 51°13.875 2°55.596 20.7933 0.006434 0.036088 30.433657
2006-05-16 07:50:48 51°13.885 2°55.589 20.8036 0.006434 0.036088 30.433657
2006-05-16 07:50:52 51°13.892 2°55.583 20.7998 0.006434 0.036088 30.433657
2006-05-16 07:50:57 51°13.902 2°55.576 20.7972 0.006434 0.036088 30.399947
2006-05-16 07:51:03 51°13.914 2°55.567 20.7893 0.006434 0.036088 30.399947
2006-05-16 07:51:07 51°13.923 2°55.561 20.7986 0.006434 0.036088 30.399947
2006-05-16 07:51:12 51°13.933 2°55.554 20.7475 0.006434 0.036089 30.399947
2006-05-16 07:51:18 51°13.946 2°55.545 20.7426 0.006434 0.036089 30.399947
2006-05-16 07:51:22 51°13.955 2°55.539 20.8273 0.006434 0.036089 30.399947
2006-05-16 07:51:28 51°13.968 2°55.531 20.8066 0.006434 0.036089 30.399947
2006-05-16 07:51:33 51°13.979 2°55.524 20.839 0.006434 0.036089 30.399947
2006-05-16 07:51:38 51°13.989 2°55.517 20.8239 0.006434 0.036089 30.399947
2006-05-16 07:51:44 51°14.003 2°55.509 20.8291 0.006434 0.036089 30.366238
2006-05-16 07:51:48 51°14.012 2°55.504 20.8413 0.006434 0.036089 30.366238
2006-05-16 07:51:53 51°14.023 2°55.497 20.8588 0.006434 0.036089 30.366238
2006-05-16 07:51:58 51°14.034 2°55.49 20.8654 0.006434 0.03609 30.399947
2006-05-16 07:52:02 51°14.043 2°55.484 20.8542 0.006434 0.03609 30.366238
2006-05-16 07:52:08 51°14.056 2°55.475 20.8568 0.006434 0.03609 30.332529
2006-05-16 07:52:13 51°14.067 2°55.467 20.8717 0.006434 0.03609 30.366238
2006-05-16 07:52:18 51°14.078 2°55.46 20.911 0.006434 0.03609 30.332529
2006-05-16 07:52:23 51°14.088 2°55.452 20.9306 0.006434 0.03609 30.332529
2006-05-16 07:52:28 51°14.099 2°55.443 20.9387 0.006434 0.03609 30.366238
2006-05-16 07:52:33 51°14.11 2°55.435 20.8799 0.006434 0.036091 30.298819
2006-05-16 07:52:38 51°14.121 2°55.426 20.8775 0.006434 0.036091 30.332529
2006-05-16 07:52:43 51°14.131 2°55.418 20.8898 0.006434 0.036091 30.332529
2006-05-16 07:52:48 51°14.142 2°55.409 20.9311 0.006434 0.036091 30.298819
2006-05-16 07:52:52 51°14.15 2°55.402 20.8468 0.006434 0.036091 30.298819
2006-05-16 07:52:58 51°14.163 2°55.391 20.9695 0.006434 0.036091 30.298819
2006-05-16 07:53:03 51°14.173 2°55.382 20.927 0.006434 0.036091 30.298819
2006-05-16 07:53:08 51°14.184 2°55.372 20.9586 0.006434 0.036091 30.298819
2006-05-16 07:53:14 51°14.196 2°55.361 20.9708 0.006434 0.03609 30.298819
2006-05-16 07:53:18 51°14.204 2°55.352 21.0008 0.006434 0.036089 30.26511
2006-05-16 07:53:22 51°14.212 2°55.344 20.9799 0.006434 0.036089 30.26511
2006-05-16 07:53:28 51°14.223 2°55.33 20.9283 0.006434 0.036089 30.26511
2006-05-16 07:53:33 51°14.232 2°55.318 20.984 0.006434 0.036087 30.26511
2006-05-16 07:53:38 51°14.241 2°55.306 21.0377 0.006434 0.036086 30.26511
2006-05-16 07:53:44 51°14.252 2°55.291 21.0306 0.006434 0.036085 30.197691
2006-05-16 07:53:48 51°14.258 2°55.28 20.9771 0.006434 0.036084 30.26511
2006-05-16 07:53:52 51°14.264 2°55.269 20.9121 0.006434 0.036084 30.26511
2006-05-16 07:53:58 51°14.273 2°55.251 20.9087 0.006434 0.036083 30.2314
2006-05-16 07:54:03 51°14.28 2°55.236 20.9395 0.006434 0.036083 30.2314
2006-05-16 07:54:08 51°14.287 2°55.221 20.8928 0.006434 0.036083 30.197691
2006-05-16 07:54:12 51°14.292 2°55.209 20.8853 0.006434 0.036082 30.2314
2006-05-16 07:54:18 51°14.301 2°55.191 20.7563 0.006434 0.036082 30.2314
2006-05-16 07:54:23 51°14.307 2°55.175 20.8349 0.006434 0.036082 30.2314
2006-05-16 07:54:27 51°14.313 2°55.163 20.7948 0.006434 0.036082 30.2314
2006-05-16 07:54:32 51°14.32 2°55.148 20.8583 0.006434 0.036082 30.197691
2006-05-16 07:54:38 51°14.328 2°55.13 20.8802 0.006434 0.036082 30.197691
2006-05-16 07:54:43 51°14.336 2°55.114 20.8861 0.006434 0.036082 30.2314
2006-05-16 07:54:48 51°14.343 2°55.099 20.8693 0.006434 0.036082 30.197691
2006-05-16 07:54:53 51°14.35 2°55.083 20.8654 0.006434 0.036082 30.197691
2006-05-16 07:54:58 51°14.357 2°55.068 20.8645 0.006434 0.036083 30.163982
2006-05-16 07:55:03 51°14.365 2°55.053 20.9343 0.006434 0.036083 30.163982
2006-05-16 07:55:07 51°14.371 2°55.041 20.9537 0.006434 0.036083 30.197691
2006-05-16 07:55:13 51°14.38 2°55.024 20.9256 0.006434 0.036083 30.130272
2006-05-16 07:55:18 51°14.387 2°55.008 20.9517 0.006434 0.036083 30.130272
2006-05-16 07:55:23 51°14.394 2°54.993 20.9418 0.006434 0.036083 30.130272
2006-05-16 07:55:28 51°14.401 2°54.977 20.9758 0.006434 0.036083 30.163982
2006-05-16 07:55:33 51°14.408 2°54.96 20.988 0.006434 0.036084 30.163982
2006-05-16 07:55:38 51°14.414 2°54.943 20.9843 0.006434 0.036083 30.130272
2006-05-16 07:55:43 51°14.42 2°54.924 20.9822 0.006434 0.036083 30.096563
2006-05-16 07:55:48 51°14.426 2°54.905 20.8659 0.006434 0.036084 30.096563
2006-05-16 07:55:53 51°14.43 2°54.884 20.8676 0.006434 0.036084 30.096563
2006-05-16 07:55:58 51°14.436 2°54.864 20.9349 0.006434 0.036084 30.130272
2006-05-16 07:56:03 51°14.441 2°54.842 20.863 0.006434 0.036084 30.096563
2006-05-16 07:56:08 51°14.446 2°54.82 20.8992 0.006434 0.036084 30.096563
2006-05-16 07:56:12 51°14.451 2°54.802 20.8633 0.006434 0.036084 30.096563
2006-05-16 07:56:18 51°14.457 2°54.774 20.8824 0.006434 0.036085 30.130272
2006-05-16 07:56:23 51°14.462 2°54.751 20.9076 0.006434 0.036085 30.130272
2006-05-16 07:56:27 51°14.467 2°54.731 20.878 0.006434 0.036085 30.096563
2006-05-16 07:56:33 51°14.473 2°54.702 20.8545 0.006434 0.036085 30.096563
2006-05-16 07:56:38 51°14.478 2°54.677 20.8091 0.006434 0.036085 30.096563
2006-05-16 07:56:43 51°14.484 2°54.652 20.8132 0.006434 0.036085 30.062853
2006-05-16 07:56:48 51°14.49 2°54.626 20.7666 0.006434 0.036085 30.096563
2006-05-16 07:56:53 51°14.495 2°54.6 20.8171 0.006434 0.036085 30.096563
2006-05-16 07:56:58 51°14.501 2°54.574 20.7786 0.006434 0.036086 30.096563
2006-05-16 07:57:03 51°14.506 2°54.548 20.8359 0.006434 0.036086 30.062853
2006-05-16 07:57:08 51°14.512 2°54.522 20.851 0.006434 0.036086 30.029144
2006-05-16 07:57:13 51°14.518 2°54.496 20.8082 0.006434 0.036086 30.062853
2006-05-16 07:57:18 51°14.524 2°54.47 20.813 0.00633 0.035636 30.029144
2006-05-16 07:57:23 51°14.53 2°54.443 20.7471 0.00633 0.035636 30.029144
2006-05-16 07:57:28 51°14.536 2°54.417 20.8218 0.006434 0.036087 30.029144
2006-05-16 07:57:32 51°14.541 2°54.396 20.8005 0.006434 0.036087 30.029144
2006-05-16 07:57:38 51°14.548 2°54.365 20.8316 0.006434 0.036087 30.029144
2006-05-16 07:57:42 51°14.554 2°54.344 20.8508 0.006434 0.036087 29.995435
2006-05-16 07:57:48 51°14.562 2°54.312 20.9084 0.006434 0.036087 29.995435
2006-05-16 07:57:53 51°14.569 2°54.286 20.9282 0.006434 0.036087 29.995435
2006-05-16 07:57:58 51°14.575 2°54.26 20.9548 0.006434 0.036088 29.995435
2006-05-16 07:58:03 51°14.581 2°54.233 20.9321 0.006434 0.036088 29.961725
2006-05-16 07:58:08 51°14.586 2°54.205 20.8631 0.006434 0.036088 29.961725
2006-05-16 07:58:12 51°14.589 2°54.182 20.8893 0.006434 0.036088 29.961725
2006-05-16 07:58:18 51°14.594 2°54.148 20.847 0.006434 0.036089 29.961725
2006-05-16 07:58:23 51°14.598 2°54.119 20.8179 0.006434 0.036089 29.961725
2006-05-16 07:58:28 51°14.601 2°54.09 20.843 0.006434 0.036089 29.995435
2006-05-16 07:58:32 51°14.603 2°54.066 20.8478 0.006434 0.036089 29.961725
2006-05-16 07:58:38 51°14.607 2°54.031 20.8157 0.00633 0.035639 29.961725
2006-05-16 07:58:43 51°14.61 2°54.002 20.7643 0.006434 0.03609 29.961725
2006-05-16 07:58:48 51°14.613 2°53.972 20.8306 0.00633 0.03564 29.961725
2006-05-16 07:58:53 51°14.615 2°53.942 20.802 0.00633 0.03564 29.961725
2006-05-16 07:58:58 51°14.619 2°53.913 20.8396 0.006434 0.03609 29.928016
2006-05-16 07:59:03 51°14.621 2°53.883 20.7679 0.00633 0.03564 29.928016
2006-05-16 07:59:08 51°14.624 2°53.854 20.7738 0.00633 0.035641 29.961725
2006-05-16 07:59:12 51°14.626 2°53.83 20.7412 0.00633 0.035641 29.928016
2006-05-16 07:59:18 51°14.63 2°53.796 20.7226 0.00633 0.035641 29.928016
2006-05-16 07:59:23 51°14.634 2°53.767 20.8133 0.00633 0.035641 29.928016
2006-05-16 07:59:28 51°14.638 2°53.738 20.7599 0.00633 0.035641 29.928016
2006-05-16 07:59:33 51°14.643 2°53.71 20.7755 0.006434 0.036092 29.928016
2006-05-16 07:59:38 51°14.647 2°53.682 20.8312 0.00633 0.035641 29.894306
2006-05-16 07:59:43 51°14.652 2°53.654 20.769 0.00633 0.035642 29.894306
2006-05-16 07:59:48 51°14.657 2°53.627 20.825 0.00633 0.035642 29.894306
2006-05-16 07:59:52 51°14.66 2°53.605 20.886 0.00633 0.035642 29.894306
2006-05-16 07:59:58 51°14.666 2°53.572 20.8536 0.00633 0.035642 29.928016
2006-05-16 08:00:03 51°14.671 2°53.544 20.8661 0.006434 0.036092 29.860597
2006-05-16 08:00:08 51°14.675 2°53.516 20.8499 0.00633 0.035642 29.860597
2006-05-16 08:00:12 51°14.678 2°53.493 20.8103 0.00633 0.035643 29.860597
2006-05-16 08:00:18 51°14.683 2°53.46 20.886 0.006434 0.036093 29.860597
2006-05-16 08:00:23 51°14.686 2°53.431 20.8997 0.006434 0.036093 29.860597
2006-05-16 08:00:28 51°14.688 2°53.402 20.8787 0.006434 0.036093 29.826888
2006-05-16 08:00:32 51°14.689 2°53.379 20.8234 0.006434 0.036094 29.826888
2006-05-16 08:00:38 51°14.69 2°53.344 20.7639 0.006434 0.036094 29.826888
2006-05-16 08:00:43 51°14.689 2°53.314 20.8278 0.00633 0.035644 29.826888
2006-05-16 08:00:48 51°14.689 2°53.285 20.7744 0.00633 0.035645 29.826888
2006-05-16 08:00:52 51°14.688 2°53.262 20.7841 0.00633 0.035645 29.826888
2006-05-16 08:00:58 51°14.686 2°53.226 20.7958 0.00633 0.035645 29.826888
2006-05-16 08:01:03 51°14.685 2°53.197 20.825 0.00633 0.035645 29.826888
2006-05-16 08:01:07 51°14.684 2°53.174 20.7885 0.00633 0.035645 29.826888
2006-05-16 08:01:13 51°14.682 2°53.139 20.7676 0.006434 0.036096 29.793178
2006-05-16 08:01:18 51°14.68 2°53.109 20.7602 0.00633 0.035646 29.826888
2006-05-16 08:01:24 51°14.678 2°53.074 20.7523 0.00633 0.035646 29.826888
2006-05-16 08:01:28 51°14.676 2°53.051 20.7703 0.00633 0.035646 29.793178
2006-05-16 08:01:33 51°14.675 2°53.021 20.7715 0.00633 0.035646 29.793178
2006-05-16 08:01:38 51°14.674 2°52.992 20.7224 0.00633 0.035647 29.759469
2006-05-16 08:01:43 51°14.673 2°52.962 20.7 0.00633 0.035647 29.793178
2006-05-16 08:01:47 51°14.672 2°52.938 20.7158 0.00633 0.035647 29.793178
2006-05-16 08:01:53 51°14.673 2°52.903 20.749 0.00633 0.035647 29.793178
2006-05-16 08:01:58 51°14.674 2°52.874 20.7459 0.00633 0.035647 29.759469
2006-05-16 08:02:02 51°14.675 2°52.85 20.8088 0.00633 0.035647 29.759469
2006-05-16 08:02:08 51°14.677 2°52.814 20.7984 0.00633 0.035648 29.759469
2006-05-16 08:02:12 51°14.679 2°52.791 20.8192 0.00633 0.035648 29.759469
2006-05-16 08:02:18 51°14.681 2°52.755 20.826 0.00633 0.035648 29.725759
2006-05-16 08:02:22 51°14.683 2°52.732 20.851 0.00633 0.035648 29.725759
2006-05-16 08:02:28 51°14.684 2°52.697 20.8725 0.00633 0.035648 29.725759
2006-05-16 08:02:32 51°14.684 2°52.673 20.8674 0.00633 0.035649 29.725759
2006-05-16 08:02:38 51°14.683 2°52.637 20.8401 0.00633 0.035649 29.725759
2006-05-16 08:02:43 51°14.682 2°52.607 20.7858 0.00633 0.035649 29.69205
2006-05-16 08:02:47 51°14.68 2°52.584 20.7931 0.00633 0.03565 29.69205
2006-05-16 08:02:53 51°14.677 2°52.548 20.8116 0.00633 0.03565 29.69205
2006-05-16 08:02:58 51°14.674 2°52.519 18.8355 0.00633 0.03565 29.69205
2006-05-16 08:03:03 51°14.671 2°52.489 16.4169 0.00633 0.03565 29.69205
2006-05-16 08:03:08 51°14.667 2°52.46 15.8251 0.00633 0.035669 29.658341
2006-05-16 08:03:13 51°14.664 2°52.43 15.1053 0.00633 0.035682 29.658341
2006-05-16 08:03:18 51°14.66 2°52.401 14.7718 3.846211 24.947619 45.198375
2006-05-16 08:03:23 51°14.656 2°52.372 14.6299 3.846211 24.947619 45.198375
2006-05-16 08:03:27 51°14.652 2°52.349 14.4411 4.202344 28.537941 39.568905
2006-05-16 08:03:33 51°14.647 2°52.314 14.3871 4.342149 30.755711 36.737315
2006-05-16 08:03:38 51°14.644 2°52.284 14.3194 4.349556 32.260259 29.624631
2006-05-16 08:03:43 51°14.64 2°52.255 14.204 4.316893 33.033608 28.276255
2006-05-16 08:03:48 51°14.636 2°52.226 14.2769 4.218343 33.085223 27.939161
2006-05-16 08:03:53 51°14.633 2°52.196 14.2904 4.218343 33.085223 27.939161
2006-05-16 08:03:58 51°14.631 2°52.166 14.1689 4.17798 33.316987 27.703195
2006-05-16 08:04:03 51°14.629 2°52.137 14.0966 4.141936 33.309766 27.500939
2006-05-16 08:04:08 51°14.627 2°52.107 14.071 4.1158 33.331643 27.197554
2006-05-16 08:04:13 51°14.626 2°52.077 14.045 4.080703 33.131232 26.927879
2006-05-16 08:04:18 51°14.625 2°52.047 13.9677 4.087029 33.326512 26.590785
2006-05-16 08:04:23 51°14.624 2°52.018 13.9518 4.087029 33.326512 26.590785
2006-05-16 08:04:28 51°14.623 2°51.988 13.9253 4.078177 33.304471 26.253691
2006-05-16 08:04:33 51°14.622 2°51.958 13.9297 4.065741 33.256205 25.950306
2006-05-16 08:04:37 51°14.621 2°51.934 13.8558 4.062474 33.287743 25.613212
2006-05-16 08:04:43 51°14.618 2°51.898 13.8883 4.066586 33.385697 25.309828
2006-05-16 08:04:47 51°14.616 2°51.875 13.8746 4.072383 33.500181 25.006443
2006-05-16 08:04:52 51°14.612 2°51.845 13.8973 4.072383 33.500181 25.006443
2006-05-16 08:04:58 51°14.607 2°51.81 13.9012 4.074808 33.574792 24.736768
2006-05-16 08:05:03 51°14.602 2°51.781 13.9091 4.07365 33.615975 24.467093
2006-05-16 08:05:08 51°14.597 2°51.752 13.9149 4.075864 33.663036 24.264836
2006-05-16 08:05:12 51°14.592 2°51.729 13.9466 4.061319 33.568236 24.096289
2006-05-16 08:05:18 51°14.585 2°51.695 13.9351 4.07344 33.694801 23.961452
2006-05-16 08:05:23 51°14.579 2°51.667 13.9418 4.07344 33.694801 23.961452
2006-05-16 08:05:28 51°14.572 2°51.639 13.9457 4.005777 33.082011 23.894033
2006-05-16 08:05:33 51°14.565 2°51.611 13.9604 4.06933 33.668214 23.759195
2006-05-16 08:05:38 51°14.558 2°51.583 13.9895 4.067222 33.649415 23.658067
2006-05-16 08:05:42 51°14.552 2°51.561 13.9757 4.062795 33.605866 23.590648
2006-05-16 08:05:48 51°14.544 2°51.527 13.9616 4.059106 33.565142 23.556939
2006-05-16 08:05:53 51°14.538 2°51.498 13.949 4.059106 33.565142 23.556939
2006-05-16 08:05:58 51°14.532 2°51.469 13.9514 4.056577 33.535802 23.455811
2006-05-16 08:06:03 51°14.528 2°51.44 13.9311 4.051834 33.491379 23.422101
2006-05-16 08:06:08 51°14.523 2°51.411 13.8902 4.040135 33.376856 23.388392
2006-05-16 08:06:12 51°14.52 2°51.387 13.9001 4.051517 33.468526 23.388392
2006-05-16 08:06:18 51°14.516 2°51.352 13.8515 4.039186 33.352223 23.320973
2006-05-16 08:06:23 51°14.513 2°51.322 13.8336 4.039186 33.352223 23.320973
2006-05-16 08:06:28 51°14.509 2°51.293 13.8724 4.053731 33.496244 23.287264
2006-05-16 08:06:33 51°14.506 2°51.263 13.8185 4.056366 33.523871 23.320973
2006-05-16 08:06:38 51°14.503 2°51.233 13.8182 4.059211 33.559449 23.354683
2006-05-16 08:06:43 51°14.5 2°51.203 13.8103 4.060371 33.594832 23.388392
2006-05-16 08:06:48 51°14.497 2°51.173 13.7901 4.055839 33.573668 23.455811
2006-05-16 08:06:52 51°14.495 2°51.15 13.7707 4.055839 33.573668 23.455811
2006-05-16 08:06:58 51°14.491 2°51.114 13.7676 4.062691 33.666437 23.52323
2006-05-16 08:07:03 51°14.488 2°51.084 13.7491 4.047619 33.533743 23.590648
2006-05-16 08:07:08 51°14.484 2°51.054 13.7503 4.052046 33.584708 23.658067
2006-05-16 08:07:13 51°14.48 2°51.025 13.7454 4.072282 33.788814 23.759195
2006-05-16 08:07:18 51°14.475 2°50.995 13.7439 4.068594 33.767435 23.860324
2006-05-16 08:07:23 51°14.47 2°50.966 13.7369 4.068594 33.767435 23.860324
2006-05-16 08:07:28 51°14.465 2°50.937 13.7203 4.074285 33.83637 23.961452
2006-05-16 08:07:33 51°14.459 2°50.908 13.7352 4.075761 33.867623 24.028871
2006-05-16 08:07:38 51°14.454 2°50.879 13.7224 4.074497 33.870768 24.129999
2006-05-16 08:07:42 51°14.449 2°50.856 13.7223 4.074391 33.877911 24.163708
2006-05-16 08:07:48 51°14.442 2°50.821 13.7215 4.0765 33.909678 24.197418
2006-05-16 08:07:53 51°14.437 2°50.792 13.7358 4.0765 33.909678 24.197418
2006-05-16 08:07:58 51°14.431 2°50.763 13.7186 4.069754 33.852451 24.264836
2006-05-16 08:08:02 51°14.427 2°50.739 13.7335 4.07513 33.911189 24.298546
2006-05-16 08:08:08 51°14.422 2°50.704 13.7324 4.074708 33.913377 24.365965
2006-05-16 08:08:12 51°14.419 2°50.68 13.709 4.076395 33.935836 24.433383
2006-05-16 08:08:18 51°14.415 2°50.644 13.7015 4.076078 33.934255 24.433383
2006-05-16 08:08:21 51°14.413 2°50.626 13.6776 4.076078 33.934255 24.433383
2006-05-16 08:08:28 51°14.408 2°50.584 13.6829 4.075868 33.932975 24.500802
2006-05-16 08:08:34 51°14.404 2°50.548 13.6915 4.074814 33.923178 24.534512
2006-05-16 08:08:38 51°14.402 2°50.524 13.6916 4.076711 33.938776 24.534512
2006-05-16 08:08:43 51°14.399 2°50.494 13.6855 4.06733 33.852277 24.63564
2006-05-16 08:08:48 51°14.396 2°50.464 13.6776 4.056369 33.761258 24.703059
2006-05-16 08:08:53 51°14.392 2°50.434 13.6639 4.056369 33.761258 24.703059
2006-05-16 08:08:58 51°14.389 2°50.404 13.6779 4.075657 33.951398 24.736768
2006-05-16 08:09:03 51°14.385 2°50.374 13.667 4.068279 33.892288 24.804187
2006-05-16 08:09:08 51°14.381 2°50.344 13.6762 4.064696 33.860317 24.804187
2006-05-16 08:09:11 51°14.378 2°50.326 13.6536 4.071336 33.924795 24.837896
2006-05-16 08:09:18 51°14.371 2°50.285 13.6609 4.071969 33.937478 24.905315
2006-05-16 08:09:23 51°14.365 2°50.255 13.6719 4.071969 33.937478 24.905315
2006-05-16 08:09:28 51°14.36 2°50.226 13.6788 4.073866 33.958534 24.939024
2006-05-16 08:09:33 51°14.355 2°50.196 13.6712 4.075552 33.98104 24.939024
2006-05-16 08:09:38 51°14.35 2°50.167 13.686 4.070177 33.933045 24.939024
2006-05-16 08:09:41 51°14.348 2°50.149 13.6904 4.065961 33.897883 24.972734
2006-05-16 08:09:48 51°14.342 2°50.107 13.6832 4.062799 33.873888 24.939024
2006-05-16 08:09:53 51°14.338 2°50.077 13.6773 4.062799 33.873888 24.939024
2006-05-16 08:09:57 51°14.335 2°50.053 13.678 4.05384 33.789839 24.939024
2006-05-16 08:10:03 51°14.331 2°50.017 13.6795 4.072496 33.960075 24.939024
2006-05-16 08:10:08 51°14.327 2°49.986 13.6671 4.067647 33.91222 24.939024
2006-05-16 08:10:13 51°14.324 2°49.956 13.6655 4.070704 33.93863 24.939024
2006-05-16 08:10:18 51°14.32 2°49.926 13.6739 4.070177 33.931004 24.972734
2006-05-16 08:10:23 51°14.316 2°49.895 13.6679 4.070177 33.931004 24.972734
2006-05-16 08:10:28 51°14.313 2°49.865 13.662 4.070599 33.934928 25.006443
2006-05-16 08:10:33 51°14.309 2°49.835 13.6643 4.059743 33.835264 25.006443
2006-05-16 08:10:38 51°14.305 2°49.805 13.6593 4.060797 33.847105 25.006443
2006-05-16 08:10:43 51°14.301 2°49.774 13.6657 4.069545 33.934641 25.040153
2006-05-16 08:10:48 51°14.298 2°49.744 13.6624 4.068596 33.927171 25.107571
2006-05-16 08:10:53 51°14.293 2°49.714 13.6607 4.068596 33.927171 25.107571
2006-05-16 08:10:58 51°14.289 2°49.684 13.657 4.069966 33.939247 25.107571
2006-05-16 08:11:03 51°14.285 2°49.654 13.6487 4.068069 33.925666 25.107571
2006-05-16 08:11:08 51°14.28 2°49.624 13.6502 4.065223 33.900532 25.17499
2006-05-16 08:11:13 51°14.276 2°49.594 13.6447 4.066277 33.913745 25.2087
2006-05-16 08:11:18 51°14.271 2°49.564 13.652 4.064064 33.894497 25.242409
2006-05-16 08:11:23 51°14.266 2°49.535 13.6517 4.064064 33.894497 25.242409
2006-05-16 08:11:28 51°14.261 2°49.505 13.6386 4.065856 33.91186 25.276118
2006-05-16 08:11:32 51°14.256 2°49.481 13.6379 4.062694 33.885818 25.343537
2006-05-16 08:11:38 51°14.25 2°49.446 13.6404 4.067648 33.938757 25.377247
2006-05-16 08:11:42 51°14.246 2°49.422 13.6414 4.063643 33.903493 25.377247
2006-05-16 08:11:48 51°14.24 2°49.386 13.6418 4.064486 33.913388 25.410956
2006-05-16 08:11:53 51°14.235 2°49.356 13.6499 4.064486 33.913388 25.410956
2006-05-16 08:11:58 51°14.231 2°49.326 13.6429 4.056687 33.840747 25.444665
2006-05-16 08:12:03 51°14.227 2°49.296 13.6425 4.055 33.826401 25.478375
2006-05-16 08:12:08 51°14.223 2°49.266 13.6495 4.06143 33.8924 25.444665
2006-05-16 08:12:13 51°14.219 2°49.235 13.6434 4.039823 33.689851 25.478375
2006-05-16 08:12:18 51°14.216 2°49.205 13.6378 4.046147 33.749394 25.579503
2006-05-16 08:12:23 51°14.211 2°49.175 13.6464 4.046147 33.749394 25.579503
2006-05-16 08:12:28 51°14.208 2°49.145 13.642 4.056265 33.844292 25.579503
2006-05-16 08:12:32 51°14.204 2°49.121 13.6421 4.043196 33.721244 25.579503
2006-05-16 08:12:38 51°14.199 2°49.085 13.6485 4.058689 33.866872 25.613212
2006-05-16 08:12:43 51°14.195 2°49.055 13.6385 4.059111 33.869439 25.680631
2006-05-16 08:12:48 51°14.191 2°49.024 13.6294 4.053841 33.821715 25.74805
2006-05-16 08:12:53 51°14.187 2°48.994 13.6329 4.053841 33.821715 25.74805
2006-05-16 08:12:58 51°14.182 2°48.964 13.6274 4.053946 33.825412 25.714341
2006-05-16 08:13:02 51°14.179 2°48.94 13.6243 4.034343 33.644249 25.815469
2006-05-16 08:13:08 51°14.173 2°48.905 13.6228 4.048255 33.771731 25.849178
2006-05-16 08:13:13 51°14.169 2°48.874 13.6264 4.054473 33.830321 25.882888
2006-05-16 08:13:18 51°14.164 2°48.845 13.6176 4.051628 33.805174 25.916597
2006-05-16 08:13:23 51°14.159 2°48.815 13.621 4.051628 33.805174 25.916597
2006-05-16 08:13:28 51°14.155 2°48.785 13.6233 4.046253 33.759184 26.017725
2006-05-16 08:13:33 51°14.15 2°48.755 13.6215 4.052366 33.82223 26.051435
2006-05-16 08:13:38 51°14.146 2°48.724 13.626 4.055633 33.853352 26.118853
2006-05-16 08:13:42 51°14.143 2°48.7 13.6161 4.059533 33.892416 26.118853
2006-05-16 08:13:48 51°14.139 2°48.664 13.6093 4.036556 33.682428 26.186272
2006-05-16 08:13:53 51°14.135 2°48.639 13.6042 4.036556 33.682428 26.186272
2006-05-16 08:13:58 51°14.131 2°48.609 13.5997 4.049731 33.807867 26.219982
2006-05-16 08:14:04 51°14.126 2°48.573 13.5996 4.057109 33.875266 26.253691
2006-05-16 08:14:09 51°14.122 2°48.543 13.5967 4.038664 33.702736 26.253691
2006-05-16 08:14:13 51°14.118 2°48.519 13.5969 4.04151 33.729919 26.32111
2006-05-16 08:14:19 51°14.112 2°48.483 13.5993 4.040561 33.725826 26.422238
2006-05-16 08:14:24 51°14.107 2°48.453 13.5963 4.040561 33.725826 26.422238
2006-05-16 08:14:28 51°14.103 2°48.429 13.6039 4.033816 33.668407 26.489657
2006-05-16 08:14:33 51°14.098 2°48.4 13.6087 4.047518 33.800145 26.557076
2006-05-16 08:14:39 51°14.092 2°48.368 13.5993 4.058268 33.903782 26.590785
2006-05-16 08:14:44 51°14.088 2°48.342 13.6063 4.058795 33.911424 26.624494
2006-05-16 08:14:49 51°14.083 2°48.318 13.6 4.058268 33.909235 26.691913
2006-05-16 08:14:54 51°14.079 2°48.294 13.6038 4.058268 33.909235 26.691913
2006-05-16 08:14:59 51°14.076 2°48.273 13.6019 4.046675 33.802476 26.793042
2006-05-16 08:15:04 51°14.073 2°48.251 13.5991 4.059322 33.919749 26.759332
2006-05-16 08:15:09 51°14.07 2°48.231 13.6073 4.060165 33.925568 26.826751
2006-05-16 08:15:13 51°14.068 2°48.216 13.5996 4.038243 33.720485 26.86046
2006-05-16 08:15:19 51°14.065 2°48.194 13.5994 4.043618 33.770585 26.927879
2006-05-16 08:15:23 51°14.063 2°48.181 13.6017 4.043618 33.770585 26.927879
2006-05-16 08:15:29 51°14.061 2°48.161 13.5972 4.061852 33.940617 26.961589
2006-05-16 08:15:33 51°14.06 2°48.149 13.5984 4.037189 33.710663 26.995298
2006-05-16 08:15:39 51°14.058 2°48.132 13.5923 4.060798 33.932149 27.062717
2006-05-16 08:15:44 51°14.057 2°48.118 13.5959 4.03603 33.698505 27.062717
2006-05-16 08:15:49 51°14.056 2°48.105 13.601 4.049204 33.823342 27.163845
2006-05-16 08:15:53 51°14.055 2°48.095 13.5999 4.049204 33.823342 27.163845
2006-05-16 08:15:59 51°14.054 2°48.08 13.6009 4.050153 33.833547 27.130136
2006-05-16 08:16:04 51°14.053 2°48.069 13.6041 4.046991 33.804745 27.197554
2006-05-16 08:16:09 51°14.053 2°48.058 13.6035 4.05616 33.891618 27.264973
2006-05-16 08:16:13 51°14.052 2°48.05 13.6028 4.059533 33.925126 27.264973
2006-05-16 08:16:19 51°14.052 2°48.04 13.6015 4.035503 33.701046 27.298683
2006-05-16 08:16:24 51°14.052 2°48.033 13.5994 4.035503 33.701046 27.298683
2006-05-16 08:16:29 51°14.052 2°48.027 13.6024 4.062906 33.956593 27.298683
2006-05-16 08:16:34 51°14.052 2°48.022 13.6022 4.046042 33.798619 27.332392
2006-05-16 08:16:39 51°14.052 2°48.018 13.61 4.053104 33.861748 27.332392
2006-05-16 08:16:44 51°14.051 2°48.015 13.6121 4.048993 33.822737 27.366101
2006-05-16 08:16:49 51°14.05 2°48.013 13.6113 4.051207 33.844056 27.399811
2006-05-16 08:16:53 51°14.049 2°48.012 13.6171 4.051207 33.844056 27.399811
2006-05-16 08:16:59 51°14.047 2°48.01 13.6091 4.03877 33.729465 27.46723
2006-05-16 08:17:04 51°14.046 2°48.008 13.6055 4.057952 33.909013 27.500939
2006-05-16 08:17:09 51°14.045 2°48.007 13.6071 4.050258 33.83521 27.46723
2006-05-16 08:17:13 51°14.044 2°48.006 13.6079 4.044883 33.783054 27.534648
2006-05-16 08:17:19 51°14.042 2°48.004 13.6041 4.046464 33.794396 27.534648
2006-05-16 08:17:24 51°14.041 2°48.003 13.6073 4.046464 33.794396 27.534648
2006-05-16 08:17:29 51°14.04 2°48.001 13.6063 4.060376 33.923442 27.534648
2006-05-16 08:17:35 51°14.038 2°47.999 13.5972 4.06143 33.933955 27.568358
2006-05-16 08:17:39 51°14.037 2°47.998 13.5991 4.037821 33.715879 27.602067
2006-05-16 08:17:45 51°14.036 2°47.996 13.5979 4.051628 33.845946 27.635777
2006-05-16 08:17:50 51°14.035 2°47.994 13.6001 4.054158 33.870215 27.703195
2006-05-16 08:17:55 51°14.034 2°47.993 13.5985 4.054158 33.870215 27.703195
2006-05-16 08:18:00 51°14.032 2°47.992 13.5746 4.044883 33.784413 27.736905
2006-05-16 08:18:04 51°14.032 2°47.991 13.5702 4.051628 33.846626 27.770614
2006-05-16 08:18:09 51°14.031 2°47.989 13.5738 4.043197 33.771408 27.804324
2006-05-16 08:18:13 51°14.03 2°47.988 13.5725 4.043829 33.779341 27.871742
2006-05-16 08:18:19 51°14.028 2°47.986 13.5673 4.060166 33.931708 27.905452
2006-05-16 08:18:24 51°14.027 2°47.984 13.5725 4.060166 33.931708 27.905452
2006-05-16 08:18:29 51°14.026 2°47.983 13.5867 4.061746 33.945776 28.040289
2006-05-16 08:18:33 51°14.025 2°47.982 13.5886 4.05869 33.918623 28.377383
2006-05-16 08:18:39 51°14.024 2°47.98 13.5936 4.057636 33.915611 28.175127
2006-05-16 08:18:44 51°14.023 2°47.978 13.5956 4.059955 33.939979 28.141418
2006-05-16 08:18:49 51°14.022 2°47.977 13.6015 4.053947 33.885281 28.175127
2006-05-16 08:18:54 51°14.021 2°47.975 13.5952 4.053947 33.885281 28.175127
2006-05-16 08:18:59 51°14.02 2°47.974 13.5947 4.057425 33.919784 28.175127
2006-05-16 08:19:04 51°14.019 2°47.972 13.597 4.058479 33.928255 28.141418
2006-05-16 08:19:09 51°14.018 2°47.971 13.6012 4.055107 33.891327 28.141418
2006-05-16 08:19:13 51°14.017 2°47.969 13.5971 4.05342 33.87355 28.141418
2006-05-16 08:19:19 51°14.016 2°47.968 13.5989 4.053209 33.866135 28.175127
2006-05-16 08:19:24 51°14.015 2°47.966 13.5982 4.053209 33.866135 28.175127
2006-05-16 08:19:28 51°14.014 2°47.965 13.5931 4.041721 33.757652 28.208836
2006-05-16 08:19:33 51°14.013 2°47.964 13.5888 4.053631 33.868024 28.242546
2006-05-16 08:19:39 51°14.013 2°47.962 13.585 4.048466 33.819183 28.175127
2006-05-16 08:19:44 51°14.012 2°47.961 13.5859 4.05068 33.838461 28.208836
2006-05-16 08:19:49 51°14.011 2°47.96 13.5906 4.043829 33.773908 28.242546
2006-05-16 08:19:54 51°14.01 2°47.958 13.5974 4.043829 33.773908 28.242546
2006-05-16 08:19:59 51°14.009 2°47.957 13.5994 4.057425 33.900007 28.242546
2006-05-16 08:20:04 51°14.008 2°47.955 13.603 4.053104 33.862429 28.276255
2006-05-16 08:20:09 51°14.007 2°47.954 13.6046 4.053736 33.871731 28.309965
2006-05-16 08:20:14 51°14.006 2°47.953 13.5979 4.050785 33.845568 28.309965
2006-05-16 08:20:18 51°14.005 2°47.951 13.5916 4.053736 33.8765 28.276255
2006-05-16 08:20:24 51°14.004 2°47.95 13.5906 4.053736 33.8765 28.276255
2006-05-16 08:20:29 51°14.003 2°47.949 13.5813 4.05205 33.858045 28.276255
2006-05-16 08:20:33 51°14.003 2°47.948 13.574 4.052261 33.857969 28.276255
2006-05-16 08:20:39 51°14.002 2°47.946 13.5713 4.054158 33.872258 28.276255
2006-05-16 08:20:44 51°14.001 2°47.944 13.57 4.058057 33.904542 28.276255
2006-05-16 08:20:48 51°14 2°47.943 13.5642 4.052682 33.855774 28.309965
2006-05-16 08:20:53 51°13.999 2°47.942 13.5623 4.052682 33.855774 28.309965
2006-05-16 08:20:58 51°13.999 2°47.94 13.56 4.056477 33.894567 28.343674
2006-05-16 08:21:03 51°13.998 2°47.94 13.5581 4.042564 33.769586 28.377383
2006-05-16 08:21:08 51°13.997 2°47.938 13.5621 4.052682 33.870074 28.411093
2006-05-16 08:21:13 51°13.996 2°47.937 13.5667 4.050469 33.853511 28.478512
2006-05-16 08:21:17 51°13.995 2°47.936 13.5647 4.053631 33.888466 28.512221
2006-05-16 08:21:23 51°13.994 2°47.934 13.5625 4.053631 33.888466 28.512221
2006-05-16 08:21:29 51°13.993 2°47.932 13.557 4.044146 33.80472 28.512221
2006-05-16 08:21:33 51°13.993 2°47.931 13.5537 4.056372 33.922915 28.54593
2006-05-16 08:21:38 51°13.992 2°47.93 13.5528 4.052261 33.885907 28.54593
2006-05-16 08:21:44 51°13.991 2°47.928 13.55 4.056688 33.927232 28.512221
2006-05-16 08:21:49 51°13.99 2°47.927 13.5483 4.048045 33.844513 28.512221
2006-05-16 08:21:54 51°13.989 2°47.925 13.5444 4.048045 33.844513 28.512221
2006-05-16 08:21:59 51°13.988 2°47.924 13.5428 4.052894 33.891128 28.54593
2006-05-16 08:22:03 51°13.988 2°47.922 13.5412 4.05321 33.895444 28.57964
2006-05-16 08:22:09 51°13.986 2°47.921 13.5398 4.047518 33.845044 28.613349
2006-05-16 08:22:13 51°13.986 2°47.919 13.5396 4.057636 33.940188 28.613349
2006-05-16 08:22:16 51°13.985 2°47.919 13.5386 4.03055 33.691463 28.613349
2006-05-16 08:22:23 51°13.984 2°47.916 13.5417 4.03055 33.691463 28.613349
2006-05-16 08:22:28 51°13.983 2°47.915 13.5439 4.034871 33.734494 28.647059
2006-05-16 08:22:34 51°13.983 2°47.913 13.5435 4.047519 33.854584 28.714477
2006-05-16 08:22:37 51°13.982 2°47.913 13.5463 4.047097 33.852693 28.647059
2006-05-16 08:22:43 51°13.981 2°47.91 13.5492 4.054159 33.921369 28.714477
2006-05-16 08:22:47 51°13.981 2°47.909 13.5546 4.042776 33.817116 28.714477
2006-05-16 08:22:53 51°13.98 2°47.908 13.5594 4.042776 33.817116 28.714477
2006-05-16 08:22:57 51°13.979 2°47.907 13.5657 4.035082 33.745973 28.680768
2006-05-16 08:23:03 51°13.978 2°47.905 13.5713 4.045095 33.839448 28.680768
2006-05-16 08:23:07 51°13.977 2°47.903 13.5735 4.034344 33.737048 28.714477
2006-05-16 08:23:13 51°13.977 2°47.901 13.5759 4.046043 33.845579 28.680768
2006-05-16 08:23:19 51°13.976 2°47.9 13.5807 4.048783 33.869121 28.613349
2006-05-16 08:23:24 51°13.975 2°47.898 13.5843 4.048783 33.869121 28.613349
2006-05-16 08:23:28 51°13.974 2°47.897 13.5854 4.045411 33.834905 28.613349
2006-05-16 08:23:33 51°13.974 2°47.895 13.5885 4.037506 33.754325 28.57964
2006-05-16 08:23:38 51°13.973 2°47.894 13.5945 4.044567 33.81682 28.57964
2006-05-16 08:23:43 51°13.972 2°47.893 13.5963 4.040035 33.769091 28.57964
2006-05-16 08:23:48 51°13.971 2°47.891 13.5974 4.046359 33.825372 28.54593
2006-05-16 08:23:54 51°13.97 2°47.889 13.5979 4.046359 33.825372 28.54593
2006-05-16 08:23:59 51°13.97 2°47.888 13.6018 4.044251 33.801623 28.54593
2006-05-16 08:24:03 51°13.969 2°47.887 13.6048 4.0374 33.736364 28.54593
2006-05-16 08:24:09 51°13.968 2°47.885 13.6067 4.0413 33.769338 28.57964
2006-05-16 08:24:13 51°13.967 2°47.884 13.6067 4.048783 33.835056 28.57964
2006-05-16 08:24:17 51°13.967 2°47.882 13.6089 4.045726 33.803827 28.54593
2006-05-16 08:24:23 51°13.966 2°47.881 13.6141 4.045726 33.803827 28.54593
2006-05-16 08:24:28 51°13.965 2°47.879 13.6176 4.044251 33.788027 28.57964
2006-05-16 08:24:33 51°13.965 2°47.878 13.6175 4.044251 33.786668 28.54593
2006-05-16 08:24:37 51°13.964 2°47.877 13.6193 4.043197 33.774124 28.512221
2006-05-16 08:24:43 51°13.964 2°47.874 13.6179 4.043091 33.770425 28.54593
2006-05-16 08:24:48 51°13.963 2°47.873 13.6187 4.026017 33.609953 28.54593
2006-05-16 08:24:54 51°13.962 2°47.872 13.6193 4.026017 33.609953 28.54593
2006-05-16 08:24:59 51°13.961 2°47.87 13.6152 4.042037 33.756528 28.54593
2006-05-16 08:25:03 51°13.961 2°47.869 13.616 4.032762 33.666031 28.54593
2006-05-16 08:25:09 51°13.96 2°47.867 13.6156 4.035397 33.688549 28.54593
2006-05-16 08:25:13 51°13.959 2°47.866 13.6204 4.029811 33.634483 28.57964
2006-05-16 08:25:19 51°13.958 2°47.864 13.6248 4.038348 33.712658 28.57964
2006-05-16 08:25:24 51°13.958 2°47.862 13.6353 4.038348 33.712658 28.57964
2006-05-16 08:25:29 51°13.957 2°47.861 13.6444 4.040562 33.733959 28.57964
2006-05-16 08:25:33 51°13.956 2°47.859 13.6491 4.042143 33.748691 28.57964
2006-05-16 08:25:39 51°13.956 2°47.858 13.653 4.040456 33.734332 28.613349
2006-05-16 08:25:43 51°13.955 2°47.857 13.6509 4.035924 33.692105 28.613349
2006-05-16 08:25:48 51°13.954 2°47.855 13.6465 4.047096 33.794857 28.613349
2006-05-16 08:25:53 51°13.954 2°47.854 13.642 4.047096 33.794857 28.613349
2006-05-16 08:25:58 51°13.953 2°47.852 13.6421 4.038981 33.714485 28.57964
2006-05-16 08:26:04 51°13.953 2°47.85 13.6476 4.039191 33.710353 28.54593
2006-05-16 08:26:09 51°13.953 2°47.849 13.6592 4.02275 33.549845 28.54593
2006-05-16 08:26:13 51°13.953 2°47.847 13.6686 4.033078 33.641257 28.54593
2006-05-16 08:26:18 51°13.954 2°47.844 13.6631 4.028125 33.591778 28.57964
2006-05-16 08:26:24 51°13.957 2°47.841 13.6597 4.028125 33.591778 28.57964
2006-05-16 08:26:29 51°13.962 2°47.837 13.667 4.041721 33.721722 28.57964
2006-05-16 08:26:34 51°13.966 2°47.834 13.6704 4.03877 33.69492 28.57964
2006-05-16 08:26:38 51°13.971 2°47.831 13.6722 4.038453 33.693329 28.57964
2006-05-16 08:26:43 51°13.977 2°47.828 13.6712 4.041721 33.719014 28.57964
2006-05-16 08:26:48 51°13.985 2°47.825 13.6615 4.018218 33.49355 28.647059
2006-05-16 08:26:53 51°13.992 2°47.823 13.6553 4.018218 33.49355 28.647059
2006-05-16 08:26:57 51°13.998 2°47.821 13.6433 4.023698 33.543181 28.680768
2006-05-16 08:27:04 51°14.01 2°47.821 13.6313 4.036556 33.66147 28.714477
2006-05-16 08:27:08 51°14.016 2°47.821 13.6168 4.039085 33.680956 28.680768
2006-05-16 08:27:13 51°14.025 2°47.823 13.6054 4.035186 33.641966 28.748187
2006-05-16 08:27:19 51°14.036 2°47.826 13.6005 4.04151 33.700136 28.748187
2006-05-16 08:27:24 51°14.044 2°47.831 13.6041 4.04151 33.700136 28.748187
2006-05-16 08:27:28 51°14.051 2°47.835 13.6206 4.041826 33.70646 28.781896
2006-05-16 08:27:33 51°14.057 2°47.843 13.6167 4.035291 33.649024 28.849315
2006-05-16 08:27:39 51°14.066 2°47.854 13.6216 4.038875 33.691165 28.916734
2006-05-16 08:27:43 51°14.07 2°47.863 13.6165 4.039297 33.707272 29.017862
2006-05-16 08:27:48 51°14.074 2°47.874 13.6201 4.042986 33.7518 29.051571
2006-05-16 08:27:53 51°14.077 2°47.886 13.6252 4.042986 33.7518 29.051571
2006-05-16 08:27:59 51°14.08 2°47.899 13.6231 4.020221 33.54854 29.051571
2006-05-16 08:28:03 51°14.082 2°47.908 13.6184 4.023804 33.58056 29.017862
2006-05-16 08:28:08 51°14.084 2°47.919 13.6169 4.039613 33.723765 29.017862
2006-05-16 08:28:14 51°14.086 2°47.931 13.6065 4.041616 33.741068 29.051571
2006-05-16 08:28:18 51°14.087 2°47.94 13.6015 4.039191 33.718481 29.051571
2006-05-16 08:28:24 51°14.088 2°47.952 13.5999 4.039191 33.718481 29.051571
2006-05-16 08:28:28 51°14.09 2°47.959 13.6027 4.020747 33.546705 28.984153
2006-05-16 08:28:33 51°14.091 2°47.969 13.6021 4.04425 33.762907 28.984153
2006-05-16 08:28:37 51°14.091 2°47.976 13.601 4.040983 33.734497 29.051571
2006-05-16 08:28:44 51°14.092 2°47.988 13.6018 4.042459 33.749602 29.085281
2006-05-16 08:28:49 51°14.092 2°47.996 13.6017 4.039929 33.732812 29.11899
2006-05-16 08:28:53 51°14.093 2°48.003 13.6001 4.039929 33.732812 29.11899
2006-05-16 08:28:59 51°14.093 2°48.012 13.5956 4.040035 33.737184 29.11899
2006-05-16 08:29:04 51°14.093 2°48.021 13.5984 4.040351 33.743523 29.085281
2006-05-16 08:29:09 51°14.093 2°48.028 13.5989 4.041089 33.751078 29.085281
2006-05-16 08:29:13 51°14.093 2°48.034 13.6021 4.040878 33.749113 29.11899
2006-05-16 08:29:19 51°14.093 2°48.044 13.6042 4.040983 33.750774 29.051571
2006-05-16 08:29:23 51°14.093 2°48.05 13.6073 4.040983 33.750774 29.051571
2006-05-16 08:29:28 51°14.093 2°48.057 13.6054 4.033079 33.6771 29.085281
2006-05-16 08:29:33 51°14.092 2°48.065 13.6051 4.036768 33.713512 29.11899
2006-05-16 08:29:39 51°14.092 2°48.073 13.6069 4.038665 33.733908 29.11899
2006-05-16 08:29:43 51°14.092 2°48.079 13.6094 4.041405 33.759456 29.085281
2006-05-16 08:29:49 51°14.092 2°48.088 13.6097 4.035608 33.704061 29.085281
2006-05-16 08:29:53 51°14.091 2°48.094 13.6121 4.035608 33.704061 29.085281
2006-05-16 08:29:59 51°14.091 2°48.102 13.6094 4.03603 33.705957 29.051571
2006-05-16 08:30:03 51°14.091 2°48.108 13.6096 4.036135 33.705584 29.11899
2006-05-16 08:30:09 51°14.091 2°48.117 13.6079 4.038454 33.726518 29.11899
2006-05-16 08:30:13 51°14.09 2°48.123 13.6121 4.014424 33.501977 29.051571
2006-05-16 08:30:19 51°14.09 2°48.131 13.6101 4.030338 33.648859 29.085281
2006-05-16 08:30:23 51°14.09 2°48.137 13.6124 4.030338 33.648859 29.085281
2006-05-16 08:30:28 51°14.09 2°48.144 13.6142 4.038348 33.721468 29.085281
2006-05-16 08:30:33 51°14.089 2°48.151 13.6169 4.037505 33.712932 29.11899
2006-05-16 08:30:39 51°14.089 2°48.159 13.6189 4.036135 33.700842 29.1527
2006-05-16 08:30:44 51°14.088 2°48.166 13.6197 4.036768 33.707412 29.11899
2006-05-16 08:30:49 51°14.088 2°48.173 13.6197 4.027071 33.615041 29.1527
2006-05-16 08:30:53 51°14.088 2°48.179 13.6191 4.027071 33.615041 29.1527
2006-05-16 08:30:59 51°14.087 2°48.187 13.6176 4.033079 33.672361 29.11899
2006-05-16 08:31:03 51°14.087 2°48.192 13.6229 4.031182 33.653332 29.085281
2006-05-16 08:31:09 51°14.086 2°48.201 13.6194 4.010103 33.455693 29.11899
2006-05-16 08:31:13 51°14.085 2°48.206 13.6243 4.033816 33.674497 29.051571
2006-05-16 08:31:17 51°14.084 2°48.211 13.6219 4.022012 33.562526 29.085281
2006-05-16 08:31:23 51°14.083 2°48.219 13.6221 4.022012 33.562526 29.085281
2006-05-16 08:31:27 51°14.082 2°48.225 13.6229 4.032868 33.662954 29.11899
2006-05-16 08:31:34 51°14.08 2°48.234 13.6125 4.010208 33.453312 29.1527
2006-05-16 08:31:39 51°14.079 2°48.241 13.6111 4.032341 33.658045 29.1527
2006-05-16 08:31:43 51°14.078 2°48.246 13.6085 4.030865 33.642948 29.11899
2006-05-16 08:31:49 51°14.076 2°48.254 13.6086 4.029495 33.628835 29.186409
2006-05-16 08:31:54 51°14.074 2°48.261 13.6011 4.029495 33.628835 29.186409
2006-05-16 08:31:59 51°14.073 2°48.267 13.597 4.032025 33.653071 29.186409
2006-05-16 08:32:04 51°14.072 2°48.274 13.5959 4.005466 33.40582 29.186409
2006-05-16 08:32:08 51°14.07 2°48.279 13.5937 4.031814 33.651784 29.253828
2006-05-16 08:32:13 51°14.069 2°48.285 13.5916 4.014002 33.488628 29.253828
2006-05-16 08:32:19 51°14.067 2°48.294 13.5894 4.02001 33.547926 29.287537
2006-05-16 08:32:24 51°14.065 2°48.3 13.5902 4.02001 33.547926 29.287537
2006-05-16 08:32:28 51°14.064 2°48.305 13.5937 4.033606 33.677271 29.287537
2006-05-16 08:32:33 51°14.062 2°48.312 13.6002 4.026861 33.619835 29.321247
2006-05-16 08:32:39 51°14.059 2°48.32 13.6124 4.015689 33.51847 29.321247
2006-05-16 08:32:44 51°14.057 2°48.326 13.6195 4.029917 33.652372 29.354956
2006-05-16 08:32:49 51°14.055 2°48.332 13.6207 4.005255 33.426694 29.388665
2006-05-16 08:32:54 51°14.053 2°48.339 13.615 4.005255 33.426694 29.388665
2006-05-16 08:32:59 51°14.051 2°48.345 13.6149 4.038981 33.742284 29.354956
2006-05-16 08:33:04 51°14.049 2°48.351 13.6073 4.034449 33.700709 29.354956
2006-05-16 08:33:08 51°14.047 2°48.356 13.607 4.03076 33.663614 29.287537
2006-05-16 08:33:13 51°14.046 2°48.363 13.6053 4.006731 33.43371 29.253828
2006-05-16 08:33:19 51°14.043 2°48.371 13.6086 4.035081 33.69102 29.220118
2006-05-16 08:33:23 51°14.042 2°48.376 13.6128 4.035081 33.69102 29.220118
2006-05-16 08:33:29 51°14.04 2°48.384 13.6183 4.031392 33.651914 29.287537
2006-05-16 08:33:33 51°14.039 2°48.389 13.6189 4.032025 33.658482 29.287537
2006-05-16 08:33:37 51°14.037 2°48.394 13.6178 4.008733 33.44294 29.321247
2006-05-16 08:33:43 51°14.036 2°48.402 13.6188 4.022329 33.572217 29.321247
2006-05-16 08:33:47 51°14.034 2°48.407 13.6191 4.034238 33.685195 29.321247
2006-05-16 08:33:53 51°14.033 2°48.415 13.6172 4.034238 33.685195 29.321247
2006-05-16 08:33:59 51°14.032 2°48.422 13.6203 4.022645 33.576511 29.287537
2006-05-16 08:34:03 51°14.031 2°48.428 13.6201 4.028231 33.62584 29.220118
2006-05-16 08:34:08 51°14.03 2°48.434 13.6238 4.029495 33.635594 29.220118
2006-05-16 08:34:13 51°14.029 2°48.441 13.6341 4.029601 33.635224 29.220118
2006-05-16 08:34:19 51°14.029 2°48.45 13.6448 4.023909 33.580192 29.253828
2006-05-16 08:34:23 51°14.029 2°48.455 13.6506 4.023909 33.580192 29.253828
2006-05-16 08:34:28 51°14.029 2°48.462 13.6512 4.024542 33.586755 29.253828
2006-05-16 08:34:33 51°14.029 2°48.469 13.653 4.020958 33.552713 29.253828
2006-05-16 08:34:37 51°14.03 2°48.474 13.6553 4.027493 33.612888 29.253828
2006-05-16 08:34:44 51°14.032 2°48.485 13.6576 4.028863 33.624297 29.220118
2006-05-16 08:34:49 51°14.033 2°48.492 13.6601 4.030444 33.634291 29.1527
2006-05-16 08:34:54 51°14.034 2°48.499 13.6583 4.030444 33.634291 29.1527
2006-05-16 08:34:59 51°14.036 2°48.505 13.6602 4.028125 33.605272 29.11899
2006-05-16 08:35:03 51°14.038 2°48.511 13.6628 4.002725 33.362899 29.1527
2006-05-16 08:35:09 51°14.04 2°48.519 13.6682 4.0296 33.608883 29.1527
2006-05-16 08:35:13 51°14.042 2°48.525 13.6741 4.002936 33.358161 29.11899
2006-05-16 08:35:17 51°14.044 2°48.53 13.6758 4.051417 33.807283 29.11899
2006-05-16 08:35:23 51°14.047 2°48.538 13.6701 4.051417 33.807283 29.11899
2006-05-16 08:35:29 51°14.05 2°48.546 13.6667 4.051417 33.805247 29.1527
2006-05-16 08:35:34 51°14.052 2°48.553 13.6664 4.05089 33.798303 29.186409
2006-05-16 08:35:37 51°14.054 2°48.557 13.6646 4.050468 33.79302 29.186409
2006-05-16 08:35:43 51°14.056 2°48.565 13.6542 4.050152 33.78804 29.1527
2006-05-16 08:35:47 51°14.058 2°48.57 13.6498 4.049309 33.775443 29.186409
2006-05-16 08:35:53 51°14.061 2°48.578 13.6462 4.049309 33.775443 29.186409
2006-05-16 08:35:59 51°14.063 2°48.585 13.6461 4.049203 33.771751 29.1527
2006-05-16 08:36:03 51°14.065 2°48.59 13.6401 4.049414 33.774391 29.220118
2006-05-16 08:36:08 51°14.067 2°48.596 13.6369 4.050047 33.781634 29.220118
2006-05-16 08:36:13 51°14.07 2°48.602 13.6379 4.049941 33.782009 29.253828
2006-05-16 08:36:17 51°14.071 2°48.607 13.6344 4.050995 33.797249 29.287537
2006-05-16 08:36:23 51°14.074 2°48.613 13.6332 4.050995 33.797249 29.287537
2006-05-16 08:36:28 51°14.076 2°48.619 13.636 4.051733 33.80887 29.321247
2006-05-16 08:36:34 51°14.078 2°48.626 13.6409 4.051839 33.812567 29.287537
2006-05-16 08:36:39 51°14.081 2°48.632 13.6456 4.052366 33.820872 29.321247
2006-05-16 08:36:43 51°14.082 2°48.636 13.6444 4.052787 33.828876 29.354956
2006-05-16 08:36:48 51°14.085 2°48.642 13.6439 4.052471 33.828647 29.354956
2006-05-16 08:36:53 51°14.087 2°48.647 13.6383 4.052471 33.828647 29.354956
2006-05-16 08:36:59 51°14.09 2°48.654 13.638 4.052576 33.830309 29.388665
2006-05-16 08:37:03 51°14.092 2°48.658 13.6363 4.053209 33.837561 29.354956
2006-05-16 08:37:08 51°14.094 2°48.663 13.633 4.052998 33.835597 29.321247
2006-05-16 08:37:14 51°14.097 2°48.67 13.6319 4.052787 33.831594 29.321247
2006-05-16 08:37:19 51°14.099 2°48.675 13.6354 4.05226 33.825324 29.321247
2006-05-16 08:37:24 51°14.102 2°48.68 13.6388 4.05226 33.825324 29.321247
2006-05-16 08:37:29 51°14.104 2°48.685 13.6376 4.052893 33.828499 29.354956
2006-05-16 08:37:33 51°14.106 2°48.689 13.6342 4.051733 33.821773 29.354956
2006-05-16 08:37:37 51°14.108 2°48.693 13.6313 4.05363 33.84081 29.388665
2006-05-16 08:37:43 51°14.111 2°48.699 13.6294 4.053841 33.844134 29.388665
2006-05-16 08:37:49 51°14.114 2°48.705 13.6295 4.053947 33.846476 29.388665
2006-05-16 08:37:53 51°14.116 2°48.709 13.6292 4.053947 33.846476 29.388665
2006-05-16 08:37:57 51°14.118 2°48.713 13.6288 4.05342 33.842245 29.388665
2006-05-16 08:38:03 51°14.121 2°48.719 13.6346 4.05342 33.840885 29.388665
2006-05-16 08:38:09 51°14.124 2°48.725 13.6437 4.05342 33.840885 29.422375
2006-05-16 08:38:14 51°14.127 2°48.73 13.6461 4.054158 33.849121 29.422375
2006-05-16 08:38:19 51°14.129 2°48.735 13.6429 4.054052 33.850179 29.422375
2006-05-16 08:38:23 51°14.132 2°48.739 13.645 4.054052 33.850179 29.422375
2006-05-16 08:38:27 51°14.133 2°48.743 13.6481 4.054158 33.851841 29.422375
2006-05-16 08:38:34 51°14.137 2°48.75 13.6458 4.054263 33.854184 29.456084
2006-05-16 08:38:39 51°14.139 2°48.755 13.6444 4.053947 33.849876 29.422375
2006-05-16 08:38:43 51°14.142 2°48.759 13.6399 4.053209 33.8396 29.388665
2006-05-16 08:38:48 51°14.145 2°48.764 13.6392 4.052576 33.82895 29.388665
2006-05-16 08:38:53 51°14.147 2°48.768 13.6383 4.052576 33.82895 29.388665
2006-05-16 08:38:57 51°14.149 2°48.772 13.6356 4.052682 33.828573 29.422375
2006-05-16 08:39:03 51°14.152 2°48.778 13.6426 4.052576 33.826232 29.422375
2006-05-16 08:39:07 51°14.154 2°48.782 13.6455 4.052471 33.82525 29.456084
2006-05-16 08:39:13 51°14.157 2°48.788 13.6478 4.05226 33.823286 29.422375
2006-05-16 08:39:17 51°14.16 2°48.792 13.6516 4.052576 33.82827 29.456084
2006-05-16 08:39:24 51°14.163 2°48.799 13.6523 4.052576 33.82827 29.456084
2006-05-16 08:39:28 51°14.165 2°48.802 13.6485 4.052576 33.82895 29.456084
2006-05-16 08:39:34 51°14.168 2°48.808 13.6497 4.052366 33.829024 29.456084
2006-05-16 08:39:37 51°14.17 2°48.811 13.654 4.051944 33.825096 29.422375
2006-05-16 08:39:43 51°14.173 2°48.817 13.6594 4.051312 33.815807 29.422375
2006-05-16 08:39:48 51°14.176 2°48.821 13.6617 4.050468 33.805914 29.422375
2006-05-16 08:39:54 51°14.179 2°48.827 13.6657 4.050468 33.805914 29.422375
2006-05-16 08:39:59 51°14.181 2°48.832 13.6709 4.049836 33.797986 29.422375
2006-05-16 08:40:03 51°14.184 2°48.836 13.6739 4.049731 33.795647 29.422375
2006-05-16 08:40:09 51°14.187 2°48.842 13.6779 4.049625 33.793987 29.422375
2006-05-16 08:40:14 51°14.19 2°48.847 13.6764 4.049414 33.789988 29.422375
2006-05-16 08:40:18 51°14.191 2°48.851 13.6774 4.048677 33.779725 29.422375
2006-05-16 08:40:23 51°14.194 2°48.856 13.6827 4.048677 33.779725 29.422375
2006-05-16 08:40:29 51°14.197 2°48.862 13.6856 4.04836 33.774068 29.354956
2006-05-16 08:40:33 51°14.199 2°48.865 13.6824 4.047623 33.763809 29.354956
2006-05-16 08:40:38 51°14.202 2°48.87 13.6784 4.047096 33.754837 29.321247
2006-05-16 08:40:44 51°14.205 2°48.876 13.6782 4.046252 33.743602 29.388665
2006-05-16 08:40:49 51°14.207 2°48.881 13.6789 4.046358 33.742552 29.354956
2006-05-16 08:40:53 51°14.209 2°48.885 13.6799 4.046358 33.742552 29.354956
2006-05-16 08:40:57 51°14.211 2°48.889 13.6759 4.046463 33.742179 29.354956
2006-05-16 08:41:03 51°14.214 2°48.895 13.6723 4.045725 33.732605 29.354956
2006-05-16 08:41:08 51°14.217 2°48.9 13.6672 4.045409 33.727632 29.354956
2006-05-16 08:41:13 51°14.219 2°48.905 13.6675 4.045936 33.733213 29.388665
2006-05-16 08:41:17 51°14.222 2°48.909 13.6656 4.046463 33.739471 29.388665
2006-05-16 08:41:24 51°14.225 2°48.915 13.6652 4.046463 33.739471 29.388665
2006-05-16 08:41:29 51°14.228 2°48.92 13.6672 4.046463 33.739471 29.422375
2006-05-16 08:41:34 51°14.231 2°48.925 13.672 4.046252 33.737509 29.456084
2006-05-16 08:41:39 51°14.233 2°48.93 13.6764 4.046674 33.744141 29.489794
2006-05-16 08:41:44 51°14.235 2°48.935 13.6773 4.047517 33.755375 29.489794
2006-05-16 08:41:48 51°14.237 2°48.939 13.681 4.047728 33.758692 29.523503
2006-05-16 08:41:53 51°14.24 2°48.944 13.6812 4.047728 33.758692 29.523503
2006-05-16 08:41:58 51°14.242 2°48.948 13.6844 4.048149 33.763972 29.523503
2006-05-16 08:42:04 51°14.245 2°48.954 13.6869 4.04836 33.767967 29.523503
2006-05-16 08:42:09 51°14.248 2°48.959 13.6902 4.047728 33.760047 29.523503
2006-05-16 08:42:13 51°14.25 2°48.963 13.6906 4.047095 33.752128 29.489794
2006-05-16 08:42:19 51°14.253 2°48.969 13.6899 4.046568 33.743837 29.523503
2006-05-16 08:42:23 51°14.255 2°48.973 13.6856 4.046568 33.743837 29.523503
2006-05-16 08:42:29 51°14.257 2°48.979 13.6854 4.046147 33.737882 29.489794
2006-05-16 08:42:34 51°14.26 2°48.984 13.6865 4.046358 33.737813 29.523503
2006-05-16 08:42:38 51°14.262 2°48.987 13.6896 4.046147 33.733145 29.489794
2006-05-16 08:42:44 51°14.265 2°48.994 13.6883 4.045725 33.726515 29.489794
2006-05-16 08:42:49 51°14.267 2°48.998 13.684 4.045304 33.72124 29.523503
2006-05-16 08:42:54 51°14.269 2°49.003 13.6791 4.045304 33.72124 29.523503
2006-05-16 08:42:59 51°14.272 2°49.008 13.6808 4.046147 33.728408 29.590922
2006-05-16 08:43:04 51°14.274 2°49.014 13.6802 4.046779 33.735645 29.557212
2006-05-16 08:43:08 51°14.276 2°49.017 13.6794 4.04699 33.738284 29.590922
2006-05-16 08:43:14 51°14.279 2°49.024 13.6801 4.047095 33.739264 29.590922
2006-05-16 08:43:19 51°14.282 2°49.029 13.6793 4.047411 33.74153 29.624631
2006-05-16 08:43:23 51°14.283 2°49.033 13.6777 4.047411 33.74153 29.624631
2006-05-16 08:43:28 51°14.286 2°49.038 13.6714 4.048149 33.751103 29.624631
2006-05-16 08:43:33 51°14.288 2°49.042 13.6694 4.048887 33.759323 29.658341
2006-05-16 08:43:39 51°14.291 2°49.048 13.6679 4.048992 33.761658 29.658341
2006-05-16 08:43:43 51°14.293 2°49.053 13.6662 4.049625 33.767544 29.69205
2006-05-16 08:43:49 51°14.296 2°49.059 13.6609 4.049625 33.767544 29.69205
2006-05-16 08:43:54 51°14.299 2°49.064 13.6562 4.049625 33.767544 29.69205
2006-05-16 08:43:59 51°14.301 2°49.069 13.6536 4.050046 33.771468 29.725759
2006-05-16 08:44:04 51°14.304 2°49.074 13.655 4.05089 33.781349 29.69205
2006-05-16 08:44:09 51°14.306 2°49.079 13.6579 4.051206 33.789038 29.759469
2006-05-16 08:44:13 51°14.308 2°49.083 13.6568 4.052155 33.799226 29.793178
2006-05-16 08:44:17 51°14.31 2°49.088 13.6588 4.052892 33.808809 29.793178
2006-05-16 08:44:24 51°14.314 2°49.095 13.6601 4.052892 33.808809 29.793178
2006-05-16 08:44:29 51°14.316 2°49.1 13.6609 4.053841 33.820357 29.826888
2006-05-16 08:44:34 51°14.319 2°49.105 13.6657 4.054895 33.834927 29.826888
2006-05-16 08:44:38 51°14.321 2°49.109 13.6684 4.05479 33.836662 29.826888
2006-05-16 08:44:43 51°14.324 2°49.114 13.6754 4.05479 33.835303 29.793178
2006-05-16 08:44:49 51°14.327 2°49.12 13.6775 4.05479 33.835303 29.759469
2006-05-16 08:44:53 51°14.329 2°49.125 13.6823 4.05479 33.835303 29.759469
2006-05-16 08:44:59 51°14.332 2°49.131 13.6823 4.054684 33.834322 29.759469
2006-05-16 08:45:03 51°14.334 2°49.135 13.6768 4.054895 33.834927 29.759469
2006-05-16 08:45:08 51°14.337 2°49.141 13.6779 4.054473 33.828962 29.725759
2006-05-16 08:45:14 51°14.34 2°49.147 13.6834 4.053736 33.819375 29.69205
2006-05-16 08:45:19 51°14.343 2°49.152 13.6848 4.053841 33.816284 29.658341
2006-05-16 08:45:23 51°14.345 2°49.156 13.6883 4.053841 33.816284 29.658341
2006-05-16 08:45:28 51°14.348 2°49.161 13.6934 4.053419 33.809645 29.69205
2006-05-16 08:45:33 51°14.351 2°49.166 13.6952 4.052998 33.803006 29.658341
2006-05-16 08:45:38 51°14.353 2°49.171 13.6997 4.052998 33.80165 29.658341
2006-05-16 08:45:44 51°14.356 2°49.177 13.705 4.052892 33.802025 29.658341
2006-05-16 08:45:49 51°14.359 2°49.182 13.7071 4.052576 33.796369 29.624631
2006-05-16 08:45:54 51°14.362 2°49.187 13.7102 4.052576 33.796369 29.624631
2006-05-16 08:45:59 51°14.365 2°49.192 13.7123 4.052365 33.791695 29.624631
2006-05-16 08:46:03 51°14.367 2°49.196 13.7143 4.051627 33.782117 29.590922
2006-05-16 08:46:09 51°14.37 2°49.202 13.7171 4.05089 33.771863 29.557212
2006-05-16 08:46:13 51°14.372 2°49.206 13.7192 4.050046 33.759954 29.523503
2006-05-16 08:46:19 51°14.376 2°49.212 13.7207 4.049308 33.749029 29.489794
2006-05-16 08:46:24 51°14.378 2°49.217 13.7215 4.049308 33.749029 29.489794
2006-05-16 08:46:28 51°14.38 2°49.221 13.7188 4.048571 33.738784 29.456084
2006-05-16 08:46:34 51°14.383 2°49.227 13.718 4.047938 33.730197 29.456084
2006-05-16 08:46:38 51°14.386 2°49.231 13.7156 4.047833 33.726512 29.422375
2006-05-16 08:46:44 51°14.389 2°49.237 13.7176 4.047095 33.716947 29.422375
2006-05-16 08:46:49 51°14.392 2°49.242 13.7191 4.045936 33.704816 29.456084
2006-05-16 08:46:54 51°14.394 2°49.247 13.7206 4.045936 33.704816 29.456084
2006-05-16 08:46:58 51°14.397 2°49.251 13.7177 4.044882 33.69164 29.422375
2006-05-16 08:47:03 51°14.399 2°49.256 13.717 4.044038 33.683127 29.456084
2006-05-16 08:47:09 51°14.403 2°49.262 13.7151 4.043617 33.679883 29.456084
2006-05-16 08:47:13 51°14.405 2°49.266 13.7166 4.043301 33.677618 29.456084
2006-05-16 08:47:19 51°14.408 2°49.272 13.7149 4.042668 33.67174 29.422375
2006-05-16 08:47:23 51°14.41 2°49.276 13.7146 4.042668 33.67174 29.422375
2006-05-16 08:47:28 51°14.413 2°49.281 13.714 4.040877 33.65441 29.489794
2006-05-16 08:47:33 51°14.415 2°49.286 13.7143 4.039717 33.64296 29.456084
2006-05-16 08:47:39 51°14.419 2°49.292 13.7155 4.03919 33.63941 29.489794
2006-05-16 08:47:44 51°14.421 2°49.297 13.7151 4.038874 33.637145 29.523503
2006-05-16 08:47:47 51°14.423 2°49.3 13.7164 4.038663 33.635186 29.590922
2006-05-16 08:47:53 51°14.426 2°49.306 13.7168 4.038663 33.635186 29.590922
2006-05-16 08:47:59 51°14.43 2°49.312 13.7166 4.038347 33.632921 29.590922
2006-05-16 08:48:03 51°14.431 2°49.316 13.718 4.03645 33.615963 29.590922
2006-05-16 08:48:06 51°14.433 2°49.319 13.7165 4.036766 33.618901 29.624631
2006-05-16 08:48:13 51°14.437 2°49.326 13.7172 4.036134 33.613698 29.590922
2006-05-16 08:48:19 51°14.44 2°49.332 13.7159 4.038347 33.632921 29.590922
2006-05-16 08:48:23 51°14.442 2°49.336 13.7117 4.038347 33.632921 29.590922
2006-05-16 08:48:29 51°14.445 2°49.342 13.7101 4.037715 33.627044 29.590922
2006-05-16 08:48:33 51°14.447 2°49.346 13.71 4.037715 33.627044 29.557212
2006-05-16 08:48:39 51°14.451 2°49.352 13.7107 4.037715 33.62637 29.624631
2006-05-16 08:48:43 51°14.453 2°49.356 13.7147 4.037715 33.625696 29.590922
2006-05-16 08:48:47 51°14.454 2°49.36 13.7189 4.03782 33.626675 29.624631
2006-05-16 08:48:53 51°14.458 2°49.366 13.7184 4.03782 33.626675 29.624631
2006-05-16 08:48:59 51°14.461 2°49.372 13.7191 4.035923 33.609044 29.725759
2006-05-16 08:49:03 51°14.463 2°49.377 13.7217 4.038769 33.638188 29.725759
2006-05-16 08:49:09 51°14.466 2°49.382 13.7263 4.03898 33.64217 29.725759
2006-05-16 08:49:13 51°14.468 2°49.386 13.7271 4.037504 33.628454 29.658341
2006-05-16 08:49:18 51°14.471 2°49.391 13.728 4.036345 33.617004 29.658341
2006-05-16 08:49:23 51°14.473 2°49.397 13.73 4.036345 33.617004 29.658341
2006-05-16 08:49:28 51°14.476 2°49.402 13.7358 4.035712 33.608432 29.658341
2006-05-16 08:49:33 51°14.478 2°49.407 13.7368 4.036766 33.61688 29.658341
2006-05-16 08:49:38 51°14.481 2°49.412 13.7374 4.037293 33.621778 29.658341
2006-05-16 08:49:43 51°14.483 2°49.417 13.7413 4.036028 33.606657 29.590922
2006-05-16 08:49:48 51°14.486 2°49.422 13.7449 4.035712 33.601699 29.590922
2006-05-16 08:49:53 51°14.488 2°49.427 13.7449 4.035712 33.601699 29.590922
2006-05-16 08:49:59 51°14.492 2°49.433 13.7482 4.034553 33.588908 29.590922
2006-05-16 08:50:04 51°14.494 2°49.438 13.7502 4.033604 33.578077 29.557212
2006-05-16 08:50:08 51°14.496 2°49.442 13.7514 4.033288 33.571777 29.624631
2006-05-16 08:50:13 51°14.498 2°49.447 13.7538 4.032866 33.565844 29.624631
2006-05-16 08:50:19 51°14.502 2°49.453 13.7538 4.031812 33.554039 29.590922
2006-05-16 08:50:24 51°14.504 2°49.458 13.756 4.031812 33.554039 29.590922
2006-05-16 08:50:28 51°14.506 2°49.462 13.7572 4.030864 33.542543 29.557212
2006-05-16 08:50:33 51°14.509 2°49.467 13.7578 4.030969 33.542179 29.590922
2006-05-16 08:50:39 51°14.512 2°49.473 13.7574 4.028967 33.5209 29.590922
2006-05-16 08:50:44 51°14.514 2°49.479 13.7574 4.028123 33.511059 29.557212
2006-05-16 08:50:49 51°14.517 2°49.484 13.7592 4.026859 33.497307 29.557212
2006-05-16 08:50:53 51°14.519 2°49.488 13.7607 4.026859 33.497307 29.557212
2006-05-16 08:50:59 51°14.522 2°49.494 13.7595 4.028756 33.512904 29.557212
2006-05-16 08:51:04 51°14.525 2°49.499 13.7592 4.027596 33.500802 29.557212
2006-05-16 08:51:09 51°14.527 2°49.504 13.7605 4.026542 33.489009 29.557212
2006-05-16 08:51:13 51°14.529 2°49.508 13.7588 4.025594 33.479536 29.557212
2006-05-16 08:51:19 51°14.533 2°49.514 13.7593 4.025067 33.474646 29.557212
2006-05-16 08:51:23 51°14.534 2°49.518 13.7574 4.025067 33.474646 29.557212
2006-05-16 08:51:29 51°14.538 2°49.524 13.7562 4.025488 33.477888 29.523503
2006-05-16 08:51:33 51°14.54 2°49.528 13.7561 4.026332 33.485042 29.523503
2006-05-16 08:51:37 51°14.542 2°49.532 13.7566 4.023908 33.461879 29.557212
2006-05-16 08:51:43 51°14.545 2°49.538 13.7563 4.024329 33.464451 29.557212
2006-05-16 08:51:49 51°14.548 2°49.544 13.7557 4.025488 33.476548 29.523503
2006-05-16 08:51:53 51°14.55 2°49.548 13.7559 4.025488 33.476548 29.523503
2006-05-16 08:51:57 51°14.552 2°49.552 13.7555 4.024329 33.46646 29.557212
2006-05-16 08:52:03 51°14.555 2°49.558 13.7561 4.023591 33.460284 29.557212
2006-05-16 08:52:09 51°14.558 2°49.564 13.7577 4.02454 33.468416 29.523503
2006-05-16 08:52:13 51°14.56 2°49.568 13.7589 4.023908 33.463888 29.557212
2006-05-16 08:52:19 51°14.564 2°49.574 13.7587 4.023591 33.460954 29.489794
2006-05-16 08:52:23 51°14.566 2°49.578 13.7591 4.023591 33.460954 29.489794
2006-05-16 08:52:28 51°14.568 2°49.584 13.7596 4.022959 33.455086 29.523503
2006-05-16 08:52:33 51°14.571 2°49.589 13.7589 4.023908 33.464558 29.523503
2006-05-16 08:52:37 51°14.573 2°49.592 13.7591 4.023697 33.462602 29.557212
2006-05-16 08:52:43 51°14.576 2°49.599 13.759 4.022432 33.450197 29.557212
2006-05-16 08:52:49 51°14.579 2°49.605 13.759 4.024856 33.47202 29.523503
2006-05-16 08:52:53 51°14.581 2°49.609 13.759 4.024856 33.47202 29.523503
2006-05-16 08:52:59 51°14.584 2°49.614 13.7599 4.022959 33.452408 29.489794
2006-05-16 08:53:04 51°14.586 2°49.62 13.7608 4.023697 33.460593 29.557212
2006-05-16 08:53:08 51°14.589 2°49.623 13.7587 4.02201 33.444277 29.523503
2006-05-16 08:53:13 51°14.591 2°49.629 13.7604 4.02454 33.468416 29.523503
2006-05-16 08:53:18 51°14.594 2°49.633 13.7585 4.023802 33.46157 29.523503
2006-05-16 08:53:23 51°14.597 2°49.638 13.7597 4.023802 33.46157 29.523503
2006-05-16 08:53:29 51°14.6 2°49.644 13.7591 4.023697 33.459923 29.523503
2006-05-16 08:53:33 51°14.602 2°49.648 13.7598 4.022959 33.452408 29.489794
2006-05-16 08:53:39 51°14.606 2°49.653 13.7585 4.024962 33.472998 29.489794
2006-05-16 08:53:43 51°14.608 2°49.657 13.7583 4.023591 33.458275 29.489794
2006-05-16 08:53:48 51°14.611 2°49.661 13.7584 4.023697 33.460593 29.489794
2006-05-16 08:53:54 51°14.614 2°49.667 13.76 4.023697 33.460593 29.489794
2006-05-16 08:53:57 51°14.616 2°49.669 13.7592 4.023381 33.456989 29.489794
2006-05-16 08:54:03 51°14.62 2°49.675 13.7591 4.023275 33.456011 29.456084
2006-05-16 08:54:09 51°14.623 2°49.68 13.7574 4.023381 33.456989 29.489794
2006-05-16 08:54:13 51°14.626 2°49.683 13.7592 4.024856 33.47068 29.489794
2006-05-16 08:54:18 51°14.629 2°49.688 13.7588 4.024856 33.47068 29.456084
2006-05-16 08:54:24 51°14.633 2°49.693 13.7596 4.024856 33.47068 29.456084
2006-05-16 08:54:28 51°14.635 2°49.696 13.7599 4.024751 33.470372 29.456084
2006-05-16 08:54:33 51°14.638 2°49.701 13.7601 4.023275 33.455342 29.456084
2006-05-16 08:54:39 51°14.643 2°49.706 13.7598 4.024645 33.468055 29.456084
2006-05-16 08:54:43 51°14.645 2°49.709 13.7603 4.022854 33.45143 29.489794
2006-05-16 08:54:48 51°14.648 2°49.713 13.7599 4.02064 33.430896 29.456084
2006-05-16 08:54:53 51°14.652 2°49.718 13.759 4.02064 33.430896 29.456084
2006-05-16 08:54:59 51°14.655 2°49.723 13.7596 4.019165 33.417208 29.489794
2006-05-16 08:55:03 51°14.658 2°49.726 13.7597 4.024224 33.463473 29.489794
2006-05-16 08:55:08 51°14.661 2°49.73 13.7609 4.018322 33.408718 29.456084
2006-05-16 08:55:13 51°14.664 2°49.735 13.7626 4.022221 33.445563 29.456084
2006-05-16 08:55:19 51°14.668 2°49.74 13.7616 4.021273 33.435425 29.456084
2006-05-16 08:55:23 51°14.67 2°49.743 13.7623 4.021273 33.435425 29.456084
2006-05-16 08:55:29 51°14.674 2°49.748 13.7644 4.023591 33.457606 29.489794
2006-05-16 08:55:34 51°14.677 2°49.752 13.765 4.023697 33.457914 29.489794
2006-05-16 08:55:39 51°14.681 2°49.756 13.7651 4.021378 33.437071 29.456084
2006-05-16 08:55:44 51°14.684 2°49.761 13.7664 4.022221 33.444225 29.422375
2006-05-16 08:55:49 51°14.687 2°49.765 13.7653 4.021273 33.436094 29.422375
2006-05-16 08:55:53 51°14.689 2°49.768 13.7639 4.021273 33.436094 29.422375
2006-05-16 08:55:59 51°14.693 2°49.773 13.7646 4.020851 33.431514 29.422375
2006-05-16 08:56:03 51°14.696 2°49.777 13.7634 4.019797 33.420399 29.388665
2006-05-16 08:56:08 51°14.699 2°49.781 13.7646 4.021905 33.439953 29.456084
2006-05-16 08:56:13 51°14.702 2°49.785 13.7641 4.021062 33.431462 29.388665
2006-05-16 08:56:18 51°14.705 2°49.789 13.7646 4.018532 33.405994 29.422375
2006-05-16 08:56:24 51°14.709 2°49.794 13.765 4.018532 33.405994 29.422375
2006-05-16 08:56:28 51°14.712 2°49.797 13.7643 4.020956 33.429816 29.422375
2006-05-16 08:56:33 51°14.715 2°49.801 13.766 4.017057 33.392977 29.422375
2006-05-16 08:56:39 51°14.719 2°49.806 13.7672 4.020746 33.427191 29.456084
2006-05-16 08:56:44 51°14.722 2°49.81 13.7679 4.020535 33.425236 29.422375
2006-05-16 08:56:49 51°14.725 2°49.814 13.7677 4.019903 33.420039 29.422375
2006-05-16 08:56:53 51°14.728 2°49.818 13.7685 4.019903 33.420039 29.422375
2006-05-16 08:56:56 51°14.73 2°49.821 13.7682 4.018638 33.408308 29.422375
2006-05-16 08:57:04 51°14.734 2°49.827 13.7691 4.020008 33.421017 29.422375
2006-05-16 08:57:08 51°14.737 2°49.831 13.7693 4.020113 33.421326 29.388665
2006-05-16 08:57:14 51°14.741 2°49.836 13.77 4.017795 33.399151 29.422375
2006-05-16 08:57:19 51°14.744 2°49.84 13.7699 4.014528 33.368183 29.388665
2006-05-16 08:57:24 51°14.747 2°49.845 13.7696 4.014528 33.368183 29.388665
2006-05-16 08:57:28 51°14.749 2°49.848 13.7687 4.014949 33.370757 29.388665
2006-05-16 08:57:33 51°14.753 2°49.852 13.7691 4.015371 33.373999 29.388665
2006-05-16 08:57:39 51°14.756 2°49.857 13.7686 4.018849 33.406921 29.354956
2006-05-16 08:57:44 51°14.759 2°49.862 13.7686 4.018216 33.39972 29.388665
2006-05-16 08:57:49 51°14.762 2°49.866 13.7673 4.019376 33.410471 29.354956
2006-05-16 08:57:54 51°14.765 2°49.87 13.77 4.019376 33.410471 29.354956
2006-05-16 08:57:58 51°14.768 2°49.874 13.7683 4.013368 33.354763 29.354956
2006-05-16 08:58:04 51°14.771 2°49.879 13.7704 4.01653 33.384082 29.388665
2006-05-16 08:58:09 51°14.774 2°49.883 13.7698 4.012947 33.34952 29.388665
2006-05-16 08:58:13 51°14.777 2°49.887 13.7715 4.012841 33.350545 29.388665
2006-05-16 08:58:19 51°14.781 2°49.892 13.7729 4.015476 33.374976 29.388665
2006-05-16 08:58:23 51°14.783 2°49.896 13.7758 4.015476 33.374976 29.388665
2006-05-16 08:58:29 51°14.787 2°49.9 13.7751 4.014949 33.37009 29.422375
2006-05-16 08:58:33 51°14.789 2°49.904 13.778 4.016741 33.386036 29.388665
2006-05-16 08:58:39 51°14.793 2°49.909 13.7781 4.017584 33.394523 29.354956
2006-05-16 08:58:43 51°14.795 2°49.913 13.7802 4.015687 33.375595 29.354956
2006-05-16 08:58:49 51°14.799 2°49.918 13.7801 4.015476 33.373641 29.321247
2006-05-16 08:58:54 51°14.802 2°49.923 13.7827 4.015476 33.373641 29.321247
2006-05-16 08:58:59 51°14.805 2°49.927 13.7823 4.014317 33.360889 29.321247
2006-05-16 08:59:03 51°14.808 2°49.931 13.7831 4.016424 33.379765 29.253828
2006-05-16 08:59:08 51°14.811 2°49.935 13.7831 4.014422 33.359864 29.253828
2006-05-16 08:59:14 51°14.814 2°49.941 13.7845 4.011366 33.330196 29.253828
2006-05-16 08:59:19 51°14.818 2°49.945 13.7847 4.01379 33.351333 29.287537
2006-05-16 08:59:23 51°14.82 2°49.949 13.7861 4.01379 33.351333 29.287537
2006-05-16 08:59:28 51°14.824 2°49.953 13.7871 4.012314 33.337655 29.253828
2006-05-16 08:59:33 51°14.827 2°49.958 13.7867 4.015581 33.365941 29.287537
2006-05-16 08:59:39 51°14.831 2°49.963 13.7858 4.013052 33.34116 29.253828
2006-05-16 08:59:43 51°14.833 2°49.967 13.7864 4.015476 33.363629 29.287537
2006-05-16 08:59:48 51°14.836 2°49.971 13.7852 4.015581 33.363939 29.287537
2006-05-16 08:59:53 51°14.839 2°49.976 13.7856 4.015581 33.363939 29.287537
2006-05-16 08:59:59 51°14.842 2°49.981 13.7873 4.015581 33.362605 29.287537
2006-05-16 09:00:04 51°14.846 2°49.985 13.7859 4.014422 33.351859 29.287537
2006-05-16 09:00:08 51°14.848 2°49.989 13.7881 4.016319 33.368109 29.287537
2006-05-16 09:00:13 51°14.851 2°49.993 13.7891 4.01516 33.35803 29.321247
2006-05-16 09:00:18 51°14.853 2°49.997 13.791 4.01516 33.356696 29.287537
2006-05-16 09:00:24 51°14.857 2°50.002 13.7907 4.01516 33.356696 29.287537
2006-05-16 09:00:29 51°14.859 2°50.007 13.7923 4.010522 33.314385 29.287537
2006-05-16 09:00:33 51°14.862 2°50.01 13.7921 4.016214 33.367132 29.287537
2006-05-16 09:00:37 51°14.864 2°50.014 13.7919 4.017584 33.379832 29.287537
2006-05-16 09:00:43 51°14.868 2°50.019 13.7917 4.018111 33.383382 29.321247
2006-05-16 09:00:49 51°14.871 2°50.024 13.7917 4.016214 33.365798 29.287537
2006-05-16 09:00:53 51°14.873 2°50.028 13.7918 4.016214 33.365798 29.287537
2006-05-16 09:00:57 51°14.876 2°50.031 13.7909 4.016424 33.367084 29.287537
2006-05-16 09:01:03 51°14.879 2°50.036 13.7887 4.012103 33.325704 29.220118
2006-05-16 09:01:09 51°14.882 2°50.041 13.7852 4.019691 33.394698 29.253828
2006-05-16 09:01:14 51°14.885 2°50.046 13.7838 4.019059 33.388837 29.220118
2006-05-16 09:01:19 51°14.888 2°50.05 13.7851 4.017373 33.371873 29.253828
2006-05-16 09:01:23 51°14.891 2°50.054 13.787 4.017373 33.371873 29.253828
2006-05-16 09:01:28 51°14.894 2°50.057 13.7876 4.016951 33.368633 29.220118
2006-05-16 09:01:33 51°14.896 2°50.062 13.7877 4.019481 33.392744 29.253828
2006-05-16 09:01:39 51°14.9 2°50.067 13.7874 4.021167 33.408375 29.253828
2006-05-16 09:01:43 51°14.902 2°50.07 13.7896 4.019164 33.391816 29.253828
2006-05-16 09:01:49 51°14.906 2°50.075 13.7892 4.021589 33.416292 29.253828
2006-05-16 09:01:53 51°14.908 2°50.079 13.7901 4.021589 33.416292 29.253828
2006-05-16 09:01:59 51°14.912 2°50.084 13.7902 4.021799 33.418246 29.253828
2006-05-16 09:02:03 51°14.914 2°50.088 13.7902 4.020851 33.409452 29.220118
2006-05-16 09:02:08 51°14.917 2°50.092 13.788 4.02064 33.406162 29.220118
2006-05-16 09:02:14 51°14.921 2°50.098 13.7875 4.021905 33.418555 29.186409
2006-05-16 09:02:18 51°14.923 2°50.102 13.7852 4.02201 33.418864 29.220118
2006-05-16 09:02:24 51°14.926 2°50.109 13.7827 4.02201 33.418864 29.220118